RÚsultats Le long de l'Alpe Alpe Huez
Triathlon L - 25-07-2019

1192 participants dont 2 de Rillieux Lyon Triathlon

Des guerriers en pleine canicule
Onglet
RÚsultats du club
PlaceNomTemps scratchClubNat.T1VÚloT2CÓpN░
 391  GABOLDE Sylvain 09:05:51 RILLIEUX TRIATHLON 00:55:35 00:05:24 06:16:01 00:02:07 01:46:42 438
 438  SEGURA Christophe 09:17:54 RILLIEUX TRIATHLON 00:41:20 00:03:00 06:22:30 00:02:32 02:08:31 1305

Onglet
RÚsultats complets
PlaceNomTemps scratchClubNat.T1VÚloT2CÓpN░
 1 GUILLAUME Romain 06:02:52 EMBRUN TRIATHLON CLUB 00:29:53 00:01:22 04:02:53 00:00:57 01:27:45 34
 2 MORENO MOLINS Albert 06:09:42 CLUB ATLETIC IGUALADA 00:29:55 00:01:23 04:10:17 00:01:38 01:26:28 22
 3 VANDENDRIESSCHE Kenneth 06:11:36 ITZU TRI TEAM 00:33:00 00:02:13 04:11:08 00:00:52 01:24:20 56
 4 DEFILLIPIS Scott 06:14:09  00:32:56 00:02:08 04:17:02 00:01:37 01:20:25 25
 5 OUILLERES Gwenael 06:14:39 A.S MONACO TRIATHLON - - - - - 74
 6 RYF Daniela 06:15:57 DANIELARYFBIRDS 00:30:23 00:01:44 04:16:28 00:00:48 01:26:32 1
 7 DEL CORRAL MORALES Victor Manuel 06:16:52 TRICBM 00:32:04 00:01:21 04:12:43 00:01:01 01:29:41 33
 8 VAN HOUTEM Timothy 06:17:48 3PT-SOLIDPHARMA 00:35:49 00:02:01 04:12:33 00:01:45 01:25:38 23
 9 PAREYN Pamphiel 06:20:45 3MD - TEAM WCUP VELDEMAN 00:29:51 00:01:22 04:16:38 00:01:11 01:31:41 969
 10 RUVIRETA BRUFAU Juan 06:25:45 CN VIC-ETB 00:29:16 00:01:28 04:23:01 00:01:48 01:30:09 44
 11 MARGOT Arnaud 06:29:20 DANIELARYFBIRDS 00:33:32 00:01:34 04:18:44 00:01:03 01:34:25 29
 12 OSORO GUTIERREZ Pello 06:29:42 DELTECO EIBAR TRIATLOI TALDEA 00:32:11 00:01:38 04:25:35 00:01:44 01:28:32 41
 13 FAURE Herv´┐Ż 06:30:24 EQUIPE CMI 00:33:07 00:01:44 04:19:08 00:01:25 01:35:00 37
 14 POUILLY F´┐Żlix 06:31:30  00:43:40 00:03:24 04:14:08 00:01:03 01:29:14 944
 15 LEMAITRE Thomas 06:31:39 SAINT RAPHAEL TRIATHLON 00:37:38 00:01:52 04:19:59 00:01:06 01:31:03 31
 16 CORTI Marco 06:32:10 ZEROTRENTA TRIATHLON BRESCIA 00:37:25 00:02:00 04:16:26 00:01:18 01:34:59 72
 17 MANTULET Gabin 06:35:17 GUC TRIATHLON 00:32:08 00:01:40 04:23:38 00:00:39 01:37:10 40
 18 OUDE BENNINK Mark 06:35:26 TEAM4TALENT 00:29:51 00:01:25 04:25:24 00:02:25 01:36:19 48
 19 MAILLET Jean 06:35:45 TRYSSINGEAUX 00:32:08 00:01:48 04:26:35 00:01:40 01:33:33 591
 20 FUENTES Gonzalo 06:37:32 ANB FANOX TRIATHLON TEAM 00:32:11 00:01:29 04:36:16 00:01:54 01:25:40 47
 21 MERINO Erik 06:38:00 TRIATL´┐Ż GRANOLLERS - - - - - 36
 22 ARROS Colin 06:38:56 BREIZH ANDUR 00:32:19 00:02:37 04:25:08 00:02:22 01:36:29 27
 23 PIERLUIGI Senor 06:39:24 ASD LADISPOLI TRIATHLON 00:37:07 00:02:43 04:25:53 00:01:33 01:32:05 60
 24 WOODROFFE Andrew 06:44:05 TRI DIVISION 00:33:33 00:02:14 04:40:35 00:00:50 01:26:52 54
 25 LESTER Carrie 06:44:15 TAC 00:31:33 00:02:11 04:40:10 00:00:53 01:29:26 3
 26 GOMEZ St´┐Żphane 06:45:01  00:28:23 00:02:11 04:42:37 00:01:05 01:30:44 46
 27 BOUIN Charles 06:46:27 353 TRIATHLON CLUB 00:35:32 00:02:11 04:28:06 00:00:58 01:39:38 67
 28 ROBERTS Douglas 06:48:36 G72 TRI 00:29:57 00:02:30 04:40:52 00:01:31 01:33:44 741
 29 PENGUILLY Hugo 06:50:20 BREST TRIATHLON 00:38:01 00:03:31 04:37:13 00:01:04 01:30:28 155
 30 DIANOUX Alexy 06:53:13 C A ORSAY TRIATHLON 00:38:14 00:02:58 04:40:21 00:02:35 01:29:03 161
 31 TONDEUR Alexandra 06:57:32 TEAM RST/UTS 00:35:22 00:02:02 04:45:01 00:01:10 01:33:55 2
 32 DEMOLY Thomas 06:58:18 BESAN´┐ŻON TRIATHLON 00:35:44 00:02:08 04:39:31 00:01:10 01:39:43 144
 33 DEWILDE Michael 06:58:33 SMO-SPECIALIZED 00:33:30 00:01:52 04:44:17 00:01:17 01:37:35 997
 34 MEIGNI´┐Ż Alice 07:02:11 U.S. IVRY TRIATHLON 00:41:08 00:02:14 04:47:15 00:00:52 01:30:39 19
 35 LEROY Raphael 07:02:31 LILLE TRIATHLON 00:40:23 00:02:07 04:36:13 00:01:45 01:42:02 364
 36 DAMOUR Aymeric 07:03:47 U.A. SOCI´┐ŻT´┐Ż G´┐ŻN´┐ŻRALE 00:39:26 00:02:29 04:44:01 00:01:07 01:36:43 593
 37 MEREDITH Hill 07:04:50  - - - - - 1317
 38 CURRIDORI Elisabetta 07:05:11 TRINUORO 00:33:19 00:01:56 04:50:50 00:01:00 01:38:04 5
 39 VERMEULEN Maarten 07:06:01 AATT 00:36:04 00:02:20 04:52:16 00:01:16 01:34:03 970
 40 CLAEYSSEN Adrien 07:06:28 HY´┐ŻRES TRIATHLON 00:40:13 00:02:51 04:50:23 00:01:49 01:31:10 291
 41 ESPINAR PUIG Rafa 07:06:53  00:38:08 00:03:22 04:51:14 00:02:37 01:31:29 82
 42 DOUMENC Sacha 07:06:58 TRIATHLON CLUB CARCASSONNE 00:33:37 00:02:31 04:44:23 00:02:20 01:44:03 532
 43 RISSER ´┐Żtienne 07:09:18 CLUB TRIMOVAL MOLSHEIM 00:34:46 00:02:32 04:52:57 00:01:42 01:37:19 279
 44 GUILLAUME Jean-Louis 07:10:22 CLERMONT TRIATHLON 00:39:18 00:02:15 04:49:05 00:01:30 01:38:12 208
 45 VERNOIT Mickael 07:10:53 LES ALLIGATORS SEYNOD TRIATHLON 00:39:09 00:02:18 04:47:57 00:01:27 01:40:00 341
 46 GOODFELLOW Benjamin 07:14:46 WRECSAM TRIATHLON CLUB 00:32:10 00:02:11 04:48:35 00:02:34 01:49:13 825
 47 PASTOR SANCHIS Vicent 07:15:03 A´┐ŻORGA KKE 00:32:15 00:02:39 04:59:31 00:01:22 01:39:13 1180
 48 BARTOLETTI Fabien 07:15:28 AUBENAS TRIATHLON 00:50:33 00:03:15 04:39:26 00:01:32 01:40:40 122
 49 RONAN Costelloe 07:17:02 LIMERICK TRI CLUB 00:36:01 00:03:21 04:50:43 00:01:31 01:45:25 660
 50 VAN REIJEN Miriam 07:18:31 DUTCH TRIATHLON ASSOCIATION 00:36:11 00:01:55 05:04:51 00:01:01 01:34:31 7
 51 RAMBAUD Simon 07:19:03 BREST TRIATHLON 00:44:20 00:03:19 04:43:10 00:01:22 01:46:51 158
 52 WADSWORTH Andrew 07:20:58 BW CYCLING MYLIFE PERSONAL TRAINING 00:39:29 00:02:51 04:44:59 00:01:37 01:51:59 721
 53 STANDIDGE Chris 07:21:54 TEAM TRIANGLE SPORT 00:30:03 00:01:24 05:02:50 00:01:35 01:46:01 1316
 54 CUMMINGS Chantal 07:22:10 E.T.E 00:33:16 00:01:35 05:01:22 00:01:10 01:44:45 12
 55 SACR´┐Ż Pieter 07:23:16 3KANT TRIATHLON CLUB 00:36:31 00:02:21 05:03:16 00:01:34 01:39:32 965
 56 GARC´┐ŻA MATUTE Andoni 07:24:08 BOMBERS VITORIATRIATLON CLUB 00:35:57 00:02:10 05:03:49 00:01:25 01:40:45 1181
 57 BROWAEYS Romain 07:24:18 HY´┐ŻRES TRIATHLON 00:38:31 00:02:34 04:51:59 00:01:51 01:49:21 307
 58 CUVILLIER Arnaud 07:24:24 BEAUVAIS TRIATHLON 00:33:28 00:02:21 05:00:28 00:01:38 01:46:27 136
 59 KLEISER Daniela 07:25:41 TRIPEP 00:42:43 00:02:30 05:06:33 00:01:21 01:32:31 73
 60 WADSWORTH Graham 07:27:41 MYLIFE PT 00:40:48 00:01:55 05:01:20 00:01:26 01:42:11 756
 61 RUBERT Valentin 07:28:07 LES PIRANHAS 00:34:47 00:02:09 04:52:17 00:02:52 01:56:00 353
 62 RICOUR Maurine 07:28:45 H3O 00:46:13 00:03:12 05:02:07 00:02:20 01:34:50 983
 63 SALMON David 07:29:18 TRIATHLON NANCY LORRAINE 00:40:46 00:03:03 05:01:46 00:01:38 01:42:03 578
 64 DOUBLEDAY Peter 07:29:52 FUL-ON TRI TRIATHLON CLUB 00:38:10 00:02:47 04:54:54 00:01:36 01:52:23 739
 65 F´┐ŻRDERER Micha Florian 07:30:29  00:44:07 00:02:38 05:02:44 00:01:45 01:39:13 1125
 66 RICHOMME Mikael 07:30:41 CAEN TRIATHLON 00:34:37 00:02:58 05:13:39 00:02:04 01:37:21 177
 67 MANDIER Etienne 07:31:20 FIT-TRI-TEAM 00:35:21 00:03:59 04:44:29 00:01:09 02:06:21 270
 68 RONDET C´┐Żme 07:31:37 GUC TRIATHLON 00:43:52 00:02:41 05:05:39 00:01:14 01:38:08 71
 69 OLCINA CAMACHO Guillermo 07:31:47 C3S TRIATL´┐ŻN 00:34:42 00:02:26 05:06:06 00:01:50 01:46:41 1188
 70 PLACE Bruno 07:31:47 TRICASTIN TRIATHLON CLUB 00:39:29 00:03:22 04:48:09 00:01:25 01:59:20 584
 71 GENITEAU Vincent 07:33:19 LILLE TRIATHLON 00:36:38 00:02:35 05:03:27 00:01:31 01:49:06 365
 72 D INVERNO Brieuc 07:33:53  00:41:07 00:03:58 05:04:28 00:02:04 01:42:14 1025
 73 BILLEMON Sam 07:36:01  00:48:03 00:03:10 04:51:48 00:03:31 01:49:28 961
 74 LECLAIR Anthony 07:36:03  00:41:02 00:02:09 04:50:16 00:01:15 02:01:18 1255
 75 GHESQUIERE Fabrice 07:36:07 HY´┐ŻRES TRIATHLON 00:37:04 00:02:46 05:10:49 00:02:42 01:42:44 294
 76 LESPINE Matthieu 07:36:43 CHARLEVILLE TRIATHLON ARDENNES 00:39:27 00:02:19 05:01:53 00:02:11 01:50:53 198
 77 CHENAUX-REPOND Philip 07:36:49 E.T.E 00:30:36 00:02:30 04:56:03 00:00:56 02:06:42 50
 78 RAPICAULT David 07:36:59 TRIATHLON CLUB SEURROIS 00:40:26 00:04:13 04:57:33 00:02:18 01:52:28 553
 79 BERNARD Paulin 07:37:15 CLERMONT TRIATHLON 00:34:54 00:02:54 04:40:46 00:01:31 02:17:07 201
 80 DANIELE Tentori 07:37:55 3LIFE A.S.D 00:42:57 00:04:14 05:03:13 00:01:36 01:45:53 1166
 81 MERCIER Nicolas 07:38:13 LILLE TRIATHLON 00:43:33 00:03:20 05:10:38 00:02:47 01:37:53 362
 82 VERSCHAEREN Hans 07:38:49  00:41:02 00:03:16 05:08:15 00:02:59 01:43:15 1022
 83 G´┐ŻNTHER Paul 07:38:55 TRI TEAM FFB 00:39:20 00:02:04 05:17:40 00:01:24 01:38:24 1091
 84 LARCHER Renaud 07:40:30  00:43:15 00:02:11 05:06:26 00:01:29 01:47:06 1299
 85 PACCARD David 07:40:54 BESAN´┐ŻON TRIATHLON 00:41:27 00:03:48 04:59:36 00:03:06 01:52:55 145
 86 DEVILLERS Yves 07:41:00 UTT 00:43:32 00:02:54 04:55:36 00:01:09 01:57:46 1016
 87 SIMON Fran´┐Żois 07:41:38 TOS TRIATHLON 00:33:51 00:02:33 04:53:03 00:02:32 02:09:36 505
 88 HOUTTEMANE Olivier 07:41:44 DAUPHINS DE SCEAUX & BOURG LA REINE 00:45:33 00:04:06 05:10:36 00:02:15 01:39:12 241
 89 MERCIER Lionel 07:42:21  00:40:38 00:04:48 05:08:27 00:02:26 01:46:00 1292
 90 DUMONTEL Valentin 07:42:53 AURILLAC TRIATHLON 00:37:57 00:04:04 04:58:35 00:03:27 01:58:47 133
 91 LITTLEWOOD Damion 07:44:06 TRI-1ST COACHING 00:32:31 00:03:13 05:08:23 00:02:52 01:57:07 1301
 92 STRAUB Sarah 07:44:34 DANIELARYFBIRDS 00:34:49 00:01:56 05:18:39 00:00:58 01:48:10 14
 93 GAILHOT Jonathan 07:45:03 VALLONS DE LA TOUR TRIATHLON 00:38:43 00:02:22 05:13:12 00:02:16 01:48:28 609
 94 GOB´┐Ż Sylvain 07:45:15 GUC TRIATHLON 00:43:13 00:04:21 05:01:17 00:02:18 01:54:03 276
 95 CARREZ C´┐Żline 07:45:27 CNP PONTARLIER 00:40:55 00:02:21 05:14:14 00:01:13 01:46:42 226
 96 RENOUF Catherine 07:47:00 TEAM TRIANGLE SPORT 00:31:56 00:02:04 05:19:22 00:01:36 01:52:00 11
 97 PRADEL Gael 07:47:07 AURILLAC TRIATHLON 00:39:55 00:02:40 05:15:34 00:01:28 01:47:29 124
 98 CARCAILLET Thomas 07:47:52 BREST TRIATHLON 00:40:37 00:02:13 05:00:56 00:01:20 02:02:44 156
 99 KAVANAGH Luke 07:48:20 TRI LONDON 00:36:22 00:03:09 05:19:08 00:01:32 01:48:08 799
 100 DEWAELE Thomas 07:48:55 TRIATHLON CLUB DE TORCY 00:37:54 00:02:25 05:11:22 00:01:43 01:55:29 538
 101 LUIS Lasa Mu´┐Żagorri 07:48:56 TOLOSALDEAKO TRIATLOI TALDEA 00:38:38 00:04:02 04:51:54 00:02:37 02:11:43 1205
 102 GRIMMERT Tobias 07:49:21  00:37:48 00:02:07 05:27:23 00:01:48 01:40:13 1126
 103 ST´┐ŻBS Andre 07:49:58 TRI-TEAM HAMBURG 00:32:59 00:02:31 05:05:47 00:02:38 02:06:01 1099
 104 CORRAL REDONDO Roberto 07:50:06 TRIADDICTS 00:38:11 00:02:52 05:17:42 00:03:54 01:47:26 1208
 105 BESSON Ugo 07:50:25 LES ALLIGATORS SEYNOD TRIATHLON 00:39:56 00:03:28 05:13:15 00:02:53 01:50:52 342
 106 ROUSSET J´┐Żr´┐Żmi 07:50:30 TRI VELOCE SAINT S´┐ŻBASTIEN 00:33:46 00:02:12 05:05:40 00:02:59 02:05:52 517
 107 LIVIN Jonathan 07:50:53 CAEN TRIATHLON 00:35:59 00:02:08 05:07:59 00:02:04 02:02:41 183
 108 RIVENET Baptiste 07:51:41 BLANC NEZ TRIATHLON 00:36:29 00:03:16 05:21:51 00:01:05 01:48:59 149
 109 SCHOOT UITERKAMP Ann 07:51:44 HELLAS 00:51:10 00:02:35 05:04:06 00:01:47 01:52:03 1041
 110 PINQUI´┐Ż Romain 07:52:25 LES MILLE PATTES TRIATHLON 00:40:20 00:04:20 05:10:17 00:01:53 01:55:33 349
 111 BARBARIN Thierry 07:53:09 CLERMONT TRIATHLON 00:33:36 00:02:55 05:17:21 00:02:29 01:56:46 205
 112 LINDEPERG Tristan 07:53:17 PARIS SPORT CLUB 00:37:49 00:02:42 05:14:31 00:01:42 01:56:30 415
 113 OSORO GUTIERREZ Txomin 07:53:51 DELTECO EIBAR TRIATLOI TALDEA 00:35:58 00:01:46 04:51:21 00:02:27 02:22:18 42
 114 GIBBS Brock 07:54:15 USAT 00:44:36 00:05:04 05:05:49 00:08:45 01:49:58 925
 115 WHITWORTH John 07:54:38  00:38:35 00:04:05 05:15:39 00:03:38 01:52:38 877
 116 IBAN Urdangarin 07:55:04 TRIGOI TT 00:42:19 00:03:21 05:11:15 00:01:26 01:56:41 1215
 117 WHITTLE James 07:55:33 PRECISION RACE TEAM 00:36:16 00:02:49 05:23:16 00:01:57 01:51:13 762
 118 TERNOIR Julien 07:56:03 TRIATHLON CLUB TORCY 00:41:55 00:03:19 05:08:31 00:02:36 01:59:41 555
 119 DEL´┐ŻTANG Jean-Marie 07:56:07 STADE LAURENTIN TRIATHLON 00:43:50 00:02:59 05:01:38 00:02:52 02:04:47 472
 120 FOLLET J´┐Żr´┐Żmy 07:56:53 EPERNAY TRIATHLON PAYS DE CHAMPAGNE 00:40:39 00:01:58 05:17:58 00:01:13 01:55:03 258
 121 GUYOMARD Bruno 07:57:10 TEAM CONCARNEAU TRIATHLON 00:43:40 00:03:17 05:21:23 00:01:45 01:47:03 480
 122 COQUET Raphael 07:57:13 SENART TRIATHLON 00:39:25 00:03:04 05:17:46 00:03:22 01:53:35 458
 123 DRAKE Robert 07:57:26 HOME OF TRIATHLON ST MORITZ 00:34:43 00:02:11 05:29:45 00:01:45 01:49:00 75
 124 FLORENCE Corentin 07:57:40 METZ TRIATHLON 00:51:33 00:06:30 05:11:09 00:02:09 01:46:17 383
 125 POLIN Delphine 07:57:47 ECHIROLLES TRIATHLON 00:36:45 00:02:22 05:11:47 00:01:05 02:05:47 247
 126 HUBERT Romuald 07:57:55 JS ANGOULEME TRIATHLON 00:42:25 00:02:40 05:13:51 00:02:12 01:56:44 312
 127 GROSPELIER Yann 07:58:01 VALL´┐ŻE DE JOUX TRI-TEAM 00:37:51 00:03:17 05:29:18 00:02:36 01:44:57 607
 128 BERTON Cyril 07:58:18 TOS TRIATHLON 00:39:25 00:02:46 05:17:19 00:01:37 01:57:09 501
 129 VILARDAGA SOLER D´┐Żdac 07:58:28 TRIATL´┐Ż LLU´┐ŻAN´┐ŻS 00:39:12 00:03:17 05:13:37 00:03:02 01:59:19 1209
 130 GARCIN C´┐Żdric 07:59:00 ECHIROLLES TRIATHLON 00:45:08 00:04:18 04:55:40 00:02:56 02:10:56 248
 131 ROZEJ Robert 07:59:01 OROLOKO TEAM 00:48:20 00:05:00 05:14:55 00:01:47 01:48:57 638
 132 LEROUX Adrien 07:59:09 SABL´┐Ż TRIATHLON 00:31:31 00:02:20 05:24:45 00:01:21 01:59:09 66
 133 VINCENT Pierre 07:59:32 TRIATHLON ATLANTIQUE CARQUEFOU 00:39:23 00:03:38 05:11:39 00:02:07 02:02:42 530
 134 TICHACEK Radek 07:59:52 VELTECHNA JICIN 00:42:46 00:03:12 05:17:41 00:01:29 01:54:42 649
 135 SCHNEIDER Sebastian 07:59:55 ASPTT STRASBOURG TRIATHLON 00:43:49 00:02:24 05:14:20 00:01:46 01:57:33 116
 136 DEBREUILLE Gr´┐Żgory 08:00:05 LES PIRANHAS 00:44:15 00:06:24 04:58:00 00:04:51 02:06:33 357
 137 JUNOT Etienne 08:00:37 TRIABOLOS TRIATHLON HAMBURG E.V. 00:34:43 00:02:47 05:16:11 00:01:46 02:05:07 520
 138 LAMOURI Alexander 08:00:40 ANTIBES TRIATHLON 00:47:16 00:05:43 04:53:34 00:03:40 02:10:26 108
 139 DAHAN Carla 08:00:50 SAINT RAPHAEL TRIATHLON 00:37:42 00:02:30 05:19:19 00:02:16 01:59:02 448
 140 WILDEMAN Henk 08:01:12  00:48:56 00:05:10 04:46:15 00:04:05 02:16:43 1073
 141 CHEVREUIL Mathieu 08:02:06 MY TRIBE 00:47:00 00:03:20 05:18:26 00:01:48 01:51:31 387
 142 HEYD Patrick 08:02:18 VCUS TRI 00:46:40 00:04:15 05:18:13 00:02:10 01:50:57 610
 143 TANKE S´┐Żren 08:04:16 TRIABOLOS HAMBURG E.V. 00:40:08 00:02:40 05:20:49 00:02:00 01:58:37 1096
 144 AMELOT Ludovic 08:04:32 ISSY TRIATHLON 00:38:13 00:04:02 05:27:32 00:02:00 01:52:43 87
 145 DEBROUVER Amandine 08:04:38 CLERMONT TRIATHLON 00:36:51 00:02:13 05:24:29 00:01:36 01:59:26 203
 146 MARC Costa Sitja 08:05:01 TRIADDICTS 00:33:42 00:02:11 05:39:39 00:01:22 01:48:04 1207
 147 DERRON Michelle 08:05:28 HOME OF TRIATHLON ST MORITZ 00:30:23 00:01:52 05:35:32 00:01:13 01:56:26 13
 148 GRATTE Guillaume 08:05:59 T3 TEAM 00:37:35 00:03:08 05:23:11 00:02:02 02:00:02 478
 149 RAWES Josie 08:06:03  00:35:00 00:02:18 05:33:29 00:04:18 01:50:55 698
 150 BARET Pierre 08:06:07 LA ROCHELLE TRIATHLON 00:43:10 00:04:29 05:15:49 00:02:26 02:00:10 321
 151 SONKE Robert 08:06:36 ADV DYNAMICA 00:42:11 00:02:54 05:07:31 00:01:51 02:12:07 1048
 152 HABASQUE Loan 08:06:41 CORSICA TRIATHLON CLUB AJACCIO 00:43:08 00:04:08 05:17:08 00:01:48 02:00:26 230
 153 SLATER Richard 08:07:39 TRI COACHING FINLAND 00:36:00 00:02:20 05:23:09 00:02:44 02:03:24 788
 154 VAUDELIN Alexis 08:08:30 T.N.T. EZANVILLE 00:33:54 00:03:04 05:10:52 00:01:51 02:18:47 477
 155 GUTI´┐ŻRREZ MUNOZ Gabriel 08:08:36 TEAM TRIRELAY 00:40:40 00:03:06 05:26:13 00:02:18 01:56:17 494
 156 BONNAL David 08:08:49 TRIATHLON PLESSIS ROBINSON 00:32:11 00:01:58 05:10:51 00:07:10 02:16:37 582
 157 BARRAZ Adrien 08:09:03 ANTIBES TRIATHLON 00:37:48 00:03:55 05:09:29 00:04:13 02:13:38 107
 158 MOREL S´┐Żbastien 08:09:19 TRIATHLON CLUB HAZEBROUCK 00:38:33 00:02:59 05:19:37 00:01:11 02:06:57 548
 159 LEROUX Alexis 08:10:32 SO. HOUILLES TRIATHLON 00:43:34 00:03:25 05:17:23 00:02:11 02:03:56 465
 160 BOGARD Olivier 08:11:04 RENNES TRIATHLON 00:35:42 00:03:22 05:07:40 00:02:50 02:21:29 434
 161 LAVIE Cl´┐Żment 08:11:39  00:38:53 00:03:11 05:22:58 00:02:25 02:04:11 1273
 162 NEVOUX Aymeric 08:12:15 URKIROLAK 00:36:07 00:02:14 05:14:26 00:01:19 02:18:06 597
 163 DEVIS Baptiste 08:12:23 VALENCE TRIATHLON 00:38:19 00:04:00 05:25:32 00:02:39 02:01:52 64
 164 FALLICA Cyrille 08:12:41 GROUPE TRIATHLON V´┐ŻSULIEN HAUTE SAONE 00:39:08 00:03:22 05:10:17 00:01:56 02:17:57 275
 165 BALAZ Jakub 08:13:15  00:42:18 00:02:47 05:18:33 00:02:37 02:06:57 644
 166 MANCOSU Maxime 08:13:18 TSV OTTOBRUNN 00:43:54 00:04:53 05:22:03 00:01:58 02:00:27 592
 167 DIDIER Mathieu 08:13:26  00:40:27 00:03:42 05:29:31 00:01:20 01:58:23 959
 168 STAELENS Dieter 08:13:34 LTDD 00:34:05 00:02:52 05:37:37 00:02:13 01:56:44 985
 169 DIETRE Annabelle 08:13:42 NICE TRIATHLON CLUB 00:34:30 00:03:26 05:32:45 00:05:32 01:57:27 393
 170 VAN NIEKERK Markus 08:14:12 FAST 00:33:24 00:02:40 05:37:58 00:02:33 01:57:35 909
 171 ROUGER Guillaume 08:14:21  00:47:00 00:05:50 05:28:40 00:02:51 01:49:59 1284
 172 BOUDON Fr´┐Żd´┐Żric 08:14:42 AURILLAC TRIATHLON 00:42:49 00:03:58 05:20:58 00:02:29 02:04:26 127
 173 VAN DER STRAETEN Colin 08:14:49  00:48:31 00:05:09 05:28:42 00:02:10 01:50:14 1275
 174 CHARLTON James 08:14:54  00:40:42 00:04:04 05:21:31 00:02:54 02:05:41 855
 175 LEROUX Charly 08:15:02 CAEN TRIATHLON 00:36:35 00:03:49 05:29:02 00:05:37 01:59:58 182
 176 PASQUIER Ewen 08:15:47 CLUB TRINOSAURE LES MUREAUX 00:42:25 00:03:59 05:25:17 00:02:31 02:01:33 220
 177 CHAUVEAU J´┐Żr´┐Żmy 08:15:48 CLUB TRINOSAURE LES MUREAUX 00:40:32 00:02:21 05:36:36 00:01:02 01:55:15 217
 178 IN-ALBON Tina 08:16:07 VC TRIA ALLSCHWIL 00:38:01 00:03:20 05:42:45 00:02:04 01:49:57 1158
 179 CARTON Emmanuel 08:16:31 TOS TRIATHLON 00:43:51 00:02:55 05:31:11 00:02:39 01:55:52 503
 180 COLL´┐ŻAUX Jildaz 08:17:55 ISSY TRIATHLON 00:42:59 00:03:35 05:41:34 00:01:39 01:48:06 93
 181 LOUGARRE Damien 08:18:02 C.A.B´┐ŻGLAIS TRIATHLON 00:41:25 00:03:44 05:35:57 00:02:32 01:54:23 164
 182 RINALDI Sabrina 08:18:26 TRIMOVAL MOLSHEIM 00:41:03 00:02:37 05:39:47 00:01:45 01:53:12 18
 183 SEUGNET Loic 08:18:31 CAEN TRIATHLON 00:38:43 00:02:31 05:34:08 00:02:57 02:00:10 181
 184 VUILLAUME Victor 08:18:50 TRIATHLON CLUB TORCY 00:48:24 00:02:36 05:27:39 00:01:51 01:58:16 556
 185 DAMS Tinny 08:18:51 TRINITY TRIATHLON TEAM 00:41:31 00:03:21 05:40:59 00:01:34 01:51:25 1008
 186 NAVARRO BOIX David 08:18:52 CLUB TRIATHLON ONTINYENT 00:40:06 00:06:12 05:32:14 00:04:05 01:56:13 1197
 187 CONNES Rapha´┐Żl 08:18:59  00:39:19 00:05:53 05:43:41 00:03:00 01:47:03 942
 188 PRATO Alessandro 08:19:13  00:44:02 00:03:38 05:33:40 00:02:30 01:55:21 1172
 189 JAIN-GARCIA C´┐Żline 08:19:16 TRIATHLON CLUB ZURICH 00:37:15 00:02:26 05:47:35 00:01:24 01:50:34 559
 190 VAN DER JEUGT Koen 08:19:25 3KTL 00:44:10 00:04:01 05:36:45 00:02:36 01:51:51 968
 191 GOUDGE Julian 08:19:26 HORWICH TRIATHLON CLUB 00:48:29 00:03:50 05:41:30 00:02:10 01:43:26 745
 192 MESSIANT S´┐Żbastien 08:19:32 CLERMONT TRIATHLON 00:32:12 00:02:34 05:34:10 00:03:38 02:06:56 207
 193 OSBORNE David 08:19:38 TRI TEAM SAINT GERMAIN 00:47:35 00:04:30 05:39:08 00:02:36 01:45:47 719
 194 DUPONT Thibault 08:20:15 TRI VELOCE SAINT S´┐ŻBASTIEN 00:38:52 00:02:36 05:16:59 00:01:54 02:19:53 518
 195 MAZZEI Giovanni 08:20:17 3 LIFE A.S.D. 00:42:27 00:04:20 05:35:18 00:02:50 01:55:21 1165
 196 VERRUE Vincent 08:20:36 FLOT 00:39:24 00:03:31 05:33:37 00:03:44 02:00:18 982
 197 DELOGE Guillaume 08:20:44 CLUB TRINOSAURE LES MUREAUX 00:39:02 00:03:43 05:19:48 00:02:09 02:15:59 216
 198 KILLEN Joe 08:20:46  00:38:18 00:03:43 05:34:27 00:04:20 01:59:57 688
 199 MAINGUY Yann 08:21:05 VENETES TRIATHLON 00:41:56 00:04:33 05:35:27 00:03:50 01:55:19 616
 200 THOMASSON William 08:21:26  00:52:59 00:07:27 05:28:09 00:02:27 01:50:22 684
 201 EECLOO Klaas 08:22:03  00:40:30 00:04:29 05:28:40 00:02:27 02:05:56 1024
 202 BASTIEN C´┐Żline 08:22:23 SHARKS TRIATHLON 00:41:41 00:03:38 05:34:20 00:01:35 02:01:08 993
 203 ROUX Mathieu 08:22:28 GUINGAMP TRIATHLON 00:42:04 00:03:09 05:23:29 00:01:18 02:12:26 280
 204 MACADRE St´┐Żphane 08:22:34 CLUB TRINOSAURE LES MUREAUX 00:38:32 00:03:44 05:36:49 00:01:41 02:01:44 213
 205 VEAU Lo´┐Żc 08:22:35  00:39:42 00:03:07 05:23:33 00:03:33 02:12:38 954
 206 DESCARREGA Fr´┐Żd´┐Żric 08:22:47 ELLESFONTDUV´┐ŻLO 00:39:27 00:05:27 05:31:49 00:04:16 02:01:46 81
 207 ANTOINE Jean-Christophe 08:22:55 LES MILLE PATTES TRIATHLON 00:41:49 00:02:40 05:36:12 00:01:50 02:00:22 350
 208 FURSDEN Vanessa 08:22:57 EVO TRI CLUB 00:52:52 00:04:40 05:33:24 00:03:13 01:48:46 733
 209 PETIT Elisabeth 08:23:22 DRAGUIGNAN TRIATHLON 00:50:08 00:03:07 05:26:23 00:01:15 02:02:26 1146
 210 PALLIER Matthieu 08:23:36 HY´┐ŻRES TRIATHLON 00:37:05 00:03:02 05:38:10 00:02:53 02:02:24 300
 211 ROTHERA Brian 08:23:58  00:38:47 00:04:58 05:47:18 00:02:04 01:50:48 857
 212 O DRISCOLL Laura 08:24:41  00:41:33 00:03:38 05:41:51 00:02:17 01:55:19 674
 213 ESCHETTE Sonny 08:25:05 X3M TRIATHLON MERSCH 00:46:36 00:03:51 05:36:39 00:01:42 01:56:16 653
 214 DUMOULIN Laurent 08:25:07 TOS TRIATHLON 00:43:26 00:05:08 05:28:50 00:03:08 02:04:33 504
 215 JUNKKAALA Hannu 08:25:26  00:41:25 00:02:08 05:49:51 00:01:49 01:50:10 1145
 216 ROUILLERE Mickael 08:25:32 TRIATHLON ORCHIES PEVELE 00:32:15 00:03:05 05:51:56 00:02:44 01:55:30 580
 217 DEMASSIEUX Quentin 08:26:01 POISSY TRIATHLON 00:49:50 00:04:43 05:30:43 00:04:08 01:56:35 427
 218 SYVRET Mark 08:26:06 JERSEY TRI CLUB 00:43:28 00:04:02 05:51:17 00:02:39 01:44:38 676
 219 AILLOUD Victor 08:26:34  00:42:08 00:03:22 05:15:09 00:02:34 02:23:19 1272
 220 FITZGERALD John 08:26:39 USAT 00:38:38 00:03:24 05:46:54 00:01:17 01:56:23 920
 221 S´┐ŻGARD Charles 08:27:32 ISSY TRIATHLON 00:47:52 00:04:26 05:46:17 00:01:49 01:47:04 95
 222 FAUSSURIER Guillaume 08:27:37 C.R.V.LYON TRIATHLON 00:47:14 00:04:44 05:32:08 00:00:58 02:02:30 168
 223 BLONDEAU Alexandre 08:28:11 TRIATHLON CLUB DE TORCY 00:42:07 00:03:56 05:39:42 00:02:33 01:59:51 544
 224 BROOM Thomas 08:28:16  00:53:07 00:04:47 05:24:48 00:02:55 02:02:37 888
 225 BONDUE Maxime 08:28:18  00:56:29 00:05:25 05:40:09 00:03:05 01:43:07 941
 226 SEDIG Carolin 08:28:19 RACE AND SHINE 00:41:04 00:02:17 05:47:01 00:02:28 01:55:28 1148
 227 WILDY Domhnall 08:28:20 TN MULTISPORTS 00:47:30 00:04:46 05:34:09 00:02:35 01:59:18 672
 228 VIVOT Kevin 08:28:24 CONSEIL EUROPE TRI 00:41:54 00:03:23 05:25:18 00:04:36 02:13:10 228
 229 SIMON Philippe 08:29:02 METZ TRIATHLON 00:47:12 00:03:26 05:26:20 00:04:02 02:08:01 380
 230 VICARIO Rapha´┐Żl 08:29:26 STADE FRAN´┐ŻAIS - - - - - 467
 231 CONDE SAN MARTIN Unai 08:30:26 ENKARTERRI TRIATLOI 00:42:24 00:04:24 05:36:29 00:02:41 02:04:26 1203
 232 DINARES ARAGUZ Jacint 08:30:33  00:47:04 00:05:27 05:31:28 00:04:39 02:01:54 1177
 233 LECUIVRE Michael 08:30:41 FIT TRI TRIATHLON 00:39:36 00:02:45 05:45:08 00:01:53 02:01:17 1315
 234 VERSCHAEREN Tim 08:30:51  00:40:23 00:03:55 05:41:44 00:04:46 02:00:01 1021
 235 HERRAN Luis 08:31:04  00:45:49 00:04:05 05:21:20 00:02:38 02:17:09 1311
 236 DEN HOLLANDER Marijn 08:31:12  00:46:46 00:03:47 05:57:01 00:01:38 01:41:58 1071
 237 PLANTE Paul 08:31:51 LES RAINETTES DU PAYS D AUGE 00:44:12 00:03:19 05:53:20 00:01:18 01:49:39 358
 238 PAYET Didier 08:32:03 CLUB TRINOSAURE LES MUREAUX 00:46:23 00:03:03 05:40:49 00:01:14 02:00:33 223
 239 MADSEN Jesper 08:32:06 SKJETTEN SV´┐ŻMMING TRIATHLON 00:33:44 00:03:33 05:00:35 00:01:59 02:52:13 1133
 240 G´┐ŻNTHER Stefan 08:32:08 TRI TV LAUINGEN 00:46:58 00:04:54 05:42:38 00:04:07 01:53:28 1092
 241 FARMER Daniel 08:32:30 TEAM CRANC 00:38:48 00:02:56 05:25:29 00:02:12 02:23:03 771
 242 ROBERT Cyril 08:32:41 CAEN TRIATHLON 00:37:44 00:03:00 05:43:21 00:02:04 02:06:30 180
 243 HEYLEN Dorien 08:32:41 AATT 00:42:24 00:02:53 05:43:57 00:02:21 02:01:04 971
 244 POUSTIS Guillaume 08:32:44 TRIATHLON DRAGUIGNAN 00:42:53 00:04:23 05:45:00 00:03:08 01:57:18 574
 245 B´┐ŻGUE S´┐Żbastien 08:32:57 ASVEL TRIATHLON 00:47:18 00:04:28 05:45:00 00:03:38 01:52:31 119
 246 GOULIER J´┐Żr´┐Żmy 08:32:58 EPERNEY TRIATHLON 00:36:18 00:02:21 05:47:24 00:02:46 02:04:08 260
 247 O SULLIVAN Padraig 08:33:16 LIMERICK TRIATHLON CLUB 00:46:36 00:03:30 05:41:21 00:02:22 01:59:26 666
 248 CHICHERY Mathieu 08:33:25 ISSY TRIATHLON 00:38:17 00:06:18 05:32:53 00:06:13 02:09:42 99
 249 WILLIAMS Jonny 08:34:02 FUL-ON TRI TRIATHLON CLUB 00:39:18 00:04:41 05:47:09 00:06:14 01:56:39 1308
 250 LE BITTER J´┐Żr´┐Żme 08:34:14 POISSY TRIATHLON 00:48:24 00:03:39 05:28:03 00:02:07 02:11:59 419
 251 MEISTER Thierry 08:34:51 TRI CLUB ISLE SUR LA SORGUE 00:35:53 00:03:30 05:40:45 00:03:39 02:11:02 512
 252 OLIVEIRA Rudy 08:35:20  00:31:26 00:02:57 05:48:56 00:03:08 02:08:51 1259
 253 MARKIEWICZ Gr´┐Żgory 08:35:24 METZ TRIATHLON 00:42:54 00:03:00 05:39:29 00:01:35 02:08:23 381
 254 FERN´┐ŻNDEZ ROSADO Vicente 08:35:31 C3S TRIATL´┐ŻN 00:41:59 00:05:02 05:45:28 00:02:52 02:00:06 1189
 255 COLLINS Richard 08:35:55 OOTRI OSWESTRY OLYMPIANS 00:51:49 00:03:51 05:32:15 00:01:56 02:06:02 759
 256 TAILLANDIER Ga´┐Żl 08:36:26 CEPS DINAN ARMOR TRIATHLON 00:32:27 00:02:48 05:45:41 00:02:24 02:13:04 191
 257 MOURGUES Yohan 08:36:46  00:45:54 00:04:37 05:38:49 00:02:24 02:05:00 929
 258 FAERCH Kirstine 08:36:53 KTK86 00:41:07 00:02:49 05:54:48 00:02:11 01:55:55 1132
 259 HULL Darren 08:37:11 SHEFFIELD TRIATHLON CLUB 00:42:21 00:03:14 05:30:15 00:05:56 02:15:22 764
 260 LEBOMIN Eric 08:37:12 TRIATHLON COTE D AMOUR 00:40:14 00:02:51 05:38:45 00:02:48 02:12:31 565
 261 LELIEVRE Fr´┐Żd´┐Żric 08:37:12 TRIATHLON COTE D AMOUR 00:41:05 00:02:58 06:01:01 00:02:51 01:49:15 562
 262 VAN DER VEKEN Pascal 08:37:19  00:37:53 00:03:18 05:53:41 00:02:13 02:00:13 1020
 263 MORDELET Cyril 08:37:32 SENART SAVIGNY TRIATHLON 00:47:48 00:04:12 05:38:49 00:02:05 02:04:37 455
 264 LAVILLE Laura 08:37:34 BESAN´┐ŻON TRIATHLON 00:43:20 00:02:20 05:44:48 00:01:26 02:05:38 140
 265 POULAIN Julien 08:37:37 CA P´┐ŻRIGUEUX TRIATHLON 00:43:07 00:02:53 05:39:07 00:03:00 02:09:27 172
 266 GARCIA Maxime 08:37:41 TRIATHLON CLUB ZURICH 00:43:29 00:03:26 05:39:24 00:02:35 02:08:44 558
 267 RIVERA Alexandre 08:37:42 POISSY TRIATHLON 00:46:52 00:03:17 05:39:59 00:02:51 02:04:41 417
 268 JENKINS Alice 08:37:57  00:31:46 00:02:51 06:07:04 00:01:44 01:54:30 886
 269 POIRIER Pierrick 08:38:16 ERN´┐ŻENNE SPROTS TRIATHLON 00:40:02 00:02:39 05:44:01 00:02:26 02:09:06 265
 270 THIJS Erik 08:38:29  00:37:49 00:02:53 05:56:34 00:04:14 01:56:57 1028
 271 JALABERT St´┐Żphane 08:38:48 C.A.B´┐ŻGLAIS TRIATHLON 00:39:42 00:03:36 05:56:27 00:02:21 01:56:40 163
 272 DUVAL Marc 08:39:01 ISSY TRIATHLON 00:49:26 00:05:39 05:43:51 00:01:43 01:58:20 96
 273 MARTIN Van Heteren 08:39:02 TZC VAHALIS 00:42:11 00:02:00 05:26:49 00:01:37 02:26:23 1069
 274 PARMANTIER Sylvie 08:39:14 ISSY TRIATHLON 00:50:42 00:03:49 05:45:27 00:01:55 01:57:19 94
 275 PEREIRA David 08:39:16 NEUVES MAISONS TRIATHLON 54 00:39:28 00:02:44 05:50:23 00:03:27 02:03:13 389
 276 WEBER Steffen 08:39:34 TRIA BASILEA 00:38:56 00:03:17 05:47:13 00:02:36 02:07:30 1093
 277 ROLDAN Guillermo 08:39:52  00:42:16 00:04:55 05:58:54 00:02:14 01:51:30 1233
 278 DUNHAM Lee 08:40:12  00:42:14 00:02:32 05:50:58 00:01:42 02:02:45 702
 279 FITZPATRICK Paul 08:40:19 BERKSHIRE TRI SQUAD 00:34:36 00:04:23 05:59:16 00:06:29 01:55:33 715
 280 MUNCK Fr´┐Żd´┐Żric 08:40:29 LUGDUNUM TRIATHLON CLUB 00:43:54 00:04:41 05:46:09 00:04:10 02:01:33 368
 281 MOUTOUEIG St´┐Żphane 08:40:29 UCVN 00:41:25 00:03:25 05:46:45 00:01:57 02:06:55 596
 282 DHONT Frederik 08:40:31 TRI UNIC 00:42:48 00:04:23 05:47:44 00:02:27 02:03:06 1005
 283 JOSKIN Damien 08:41:05  00:36:28 00:03:05 05:48:19 00:03:13 02:09:59 949
 284 DEMEURE Nathan 08:41:33 TTR 00:40:09 00:03:09 05:41:00 00:02:31 02:14:43 1013
 285 ROBINSON Kate 08:41:51 BERKSHIRE TRI SQUAD 00:41:51 00:03:55 05:41:18 00:03:19 02:11:26 716
 286 RENAUDEAU Pierre 08:42:09 JS ANGOULEME TRIATHLON 00:38:06 00:03:10 05:52:09 00:02:27 02:06:15 311
 287 M´┐ŻTAIS Damien 08:42:09 TEAM TRI 86 00:47:17 00:05:45 05:55:26 00:04:40 01:48:59 481
 288 ZAHN Florian 08:42:14  00:39:27 00:03:22 05:32:38 00:02:43 02:24:01 1124
 289 LEROY Val´┐Żrie 08:42:32 ATCC 00:43:02 00:03:26 06:03:48 00:03:07 01:49:07 975
 290 HONORE St´┐Żphane 08:42:40 CA P´┐ŻRIGUEUX TRIATHLON 00:39:52 00:03:44 05:53:04 00:03:11 02:02:48 173
 291 BOCH Franck 08:42:46 USAT 00:41:01 00:03:00 05:29:45 00:01:39 02:27:19 600
 292 CLAUDEL R´┐Żgis 08:42:59 TRIATHLON LANEUVEVILLE DEVANT NANCY 00:40:41 00:03:05 05:28:28 00:02:22 02:28:20 577
 293 MORGANDO Thibault 08:43:06 GUC TRIATHLON 00:29:50 00:01:59 05:59:09 00:01:58 02:10:08 278
 294 WATTS Helen 08:44:10 TRI MONTAGNE 00:43:22 00:03:04 05:43:44 00:01:37 02:12:21 515
 295 BECART Jean-Denis 08:44:12 METZ TRIATHLON 00:43:31 00:03:01 05:14:23 00:01:53 02:41:22 384
 296 IVARS Nicolas 08:44:12 METZ TRIATHLON 00:42:23 00:03:17 05:40:30 00:01:38 02:16:23 376
 297 BOISSERANC Justin 08:44:16 USAT 00:42:47 00:04:17 05:48:52 00:02:24 02:05:56 601
 298 ALBLAS Kees 08:44:19 TVHW 00:45:27 00:03:32 05:58:39 00:01:53 01:54:46 1067
 299 BATTENFELD Ralf 08:44:19 OF TRIATHLON 00:41:37 00:04:25 05:25:05 00:02:55 02:30:14 1154
 300 PERRARD Fabien 08:44:32 LES ALLIGATORS SEYNOD TRIATHLON 00:47:44 00:04:38 05:53:26 00:02:50 01:55:51 343
 301 TEAR Wilhelm 08:44:53  00:39:58 00:03:22 05:48:25 00:03:58 02:09:08 1149
 302 GARC´┐ŻA LOPEZ Mario 08:45:09  00:49:53 00:05:27 05:54:12 00:02:56 01:52:40 1223
 303 ANGIONI Maria 08:45:20 GRANBIKE 00:50:52 00:04:17 05:54:25 00:01:32 01:54:13 1307
 304 LETELLIER Fabrice 08:45:30 V´┐ŻLO CLUB CANTON LES PIEUX 00:49:59 00:02:44 05:16:42 00:01:59 02:34:03 615
 305 STIGGELBOUT Jaap 08:45:36  00:44:05 00:03:43 05:47:15 00:02:21 02:08:10 1039
 306 CHAUDRON Fr´┐Żd´┐Żric 08:45:38 HY´┐ŻRES TRIATHLON 00:40:37 00:03:55 05:54:29 00:03:03 02:03:32 290
 307 SACARELLO Lucy 08:46:12  00:42:52 00:03:34 06:05:26 00:01:57 01:52:21 689
 308 TROMAS Pierre Fran´┐Żois 08:46:30 LES LIONS CHATELLERAUDAIS 00:42:09 00:04:58 05:28:51 00:03:09 02:27:21 347
 309 BRUNIER Louis 08:46:36  00:45:39 00:03:13 06:00:20 00:01:51 01:55:32 934
 310 CERVERA Guilhem 08:46:37 SIX FOURS TRIATHLON 00:37:37 00:03:15 05:14:16 00:03:52 02:47:36 463
 311 QUARTIER Christophe 08:47:22 EFC ITC 00:40:07 00:03:17 05:42:05 00:03:55 02:17:57 979
 312 AIGON Pauline 08:47:26 DIJON SINGLETRACK 00:41:04 00:02:57 05:51:37 00:04:08 02:07:38 244
 313 MURGUES R´┐Żmy 08:47:49 ECHIROLLES TRIATHLON 00:36:23 00:02:37 05:54:12 00:01:44 02:12:50 253
 314 TEUTARI Jere 08:48:07  00:45:49 00:04:22 05:43:37 00:04:14 02:10:02 1143
 315 FULLEN Gill 08:48:25 E.T.E 00:43:04 00:02:02 05:51:45 00:01:54 02:09:37 51
 316 HIGSON Matthew 08:48:32 WEST LOTHIAN TRI 00:45:17 00:02:56 05:44:25 00:02:19 02:13:33 822
 317 MARTINY St´┐Żphane 08:48:33 TEAM TRIATHLON ROQUEBRUNE 00:40:55 00:03:56 05:36:23 00:02:25 02:24:52 493
 318 HOFFBECK Maelle 08:48:54 ASPTT STRASBOURG TRIATHLON 00:41:11 00:02:29 05:53:19 00:01:59 02:09:55 114
 319 FERRER Guillaume 08:48:54 CLERMONT TRIATHLON 00:43:15 00:03:20 05:52:02 00:01:58 02:08:17 206
 320 PINEDA VADILLO Carlos 08:48:58  00:38:12 00:04:49 05:54:53 00:05:01 02:06:01 1225
 321 MAIORA ELIZONDO Maite 08:49:13  00:48:19 00:02:57 05:57:57 00:01:08 01:58:50 16
 322 HUGON Claude 08:49:14 HY´┐ŻRES TRIATHLON 00:43:37 00:03:13 06:02:45 00:01:56 01:57:41 306
 323 DE GROOT Marieke 08:49:28 DOLFIJN AMSTERDAM 00:40:50 00:02:18 06:05:45 00:02:02 01:58:32 1053
 324 BRUN Jean-Francois 08:49:55 ORANGE PASSION TRIATHLON 00:51:58 00:04:21 05:51:19 00:02:23 01:59:52 400
 325 SOUBIROU Francois 08:50:03 YPRL SAINT CYR TRIATHLON 00:53:04 00:05:08 05:53:50 00:01:36 01:56:23 629
 326 EHRHART Thierry 08:50:09 SG WANTZENAU TRIATHLON 00:40:13 00:03:22 05:58:43 00:03:53 02:03:56 459
 327 GREMMEL Hendrik 08:50:26 HANNOVER 96 00:32:11 00:03:20 06:11:49 00:02:17 02:00:47 1081
 328 WICK In´┐Żs 08:51:20 ANTIBES TRIATHLON 00:37:33 00:02:52 05:59:11 00:03:20 02:08:22 109
 329 RUSHBY Mark 08:51:21 PENINSULA TRIATHLON CLUB 00:45:44 00:03:33 05:49:36 00:03:48 02:08:38 761
 330 BOIS Cl´┐Żment 08:51:23 TRIATHLON AUBAGNE 00:38:28 00:02:47 05:59:58 00:02:10 02:07:59 1314
 331 SYMINGTON Sara 08:51:30  00:38:52 00:02:46 05:45:39 00:02:32 02:21:39 892
 332 DUPEU Franck 08:51:41 CLUB TRINOSAURE LES MUREAUX 00:41:33 00:02:14 05:45:32 00:03:49 02:18:31 221
 333 VASSEUR Vincent 08:52:03 REQUINS COURONNAIS TRIATHLON 00:43:59 00:05:19 05:55:27 00:03:52 02:03:23 437
 334 BOUYGUES J´┐Żr´┐Żmy 08:52:26 CLERMONT TRIATHLON 00:37:55 00:02:56 06:03:26 00:01:50 02:06:17 204
 335 SWIETEK Simon 08:52:26  00:46:04 00:03:26 05:45:34 00:01:50 02:15:30 1263
 336 FRAISSINET Nicolas 08:53:16 TARARE TRIATHLON 00:49:34 00:04:34 05:51:52 00:02:30 02:04:43 479
 337 LECUE Korick 08:53:28 MACH 3 TRIATHLON 00:36:23 00:02:58 06:02:24 00:02:24 02:09:18 372
 338 LAWLEY Eddie 08:53:42  00:38:55 00:03:25 05:50:58 00:02:57 02:17:26 858
 339 COURBEBAISSE Laurent 08:53:50 AURILLAC TRIATHLON 00:38:27 00:03:30 06:01:02 00:02:19 02:08:30 132
 340 RICHAUDEAU Olivier 08:54:14 LA ROCHELLE TRIATHLON 00:37:22 00:02:49 06:00:51 00:03:57 02:09:14 320
 341 LAZARDEUX Lo´┐Żc 08:54:44  00:41:49 00:04:50 06:04:17 00:03:48 01:59:57 65
 342 ROBINAULT Anthony 08:54:56 CRENSOA TRIATHLON 00:46:55 00:03:57 05:55:34 00:02:38 02:05:49 234
 343 NATALIS Alexandre 08:55:12 TTF 00:37:59 00:02:09 06:18:13 00:01:22 01:55:27 1012
 344 BRENSBERGER Christian 08:55:28 ATSV-TRI-TERNITZ 00:44:14 00:04:12 05:53:54 00:02:59 02:10:06 1127
 345 HARHOUR Laetitia 08:55:46 ECHIROLLES TRIATHLON 00:47:56 00:03:02 05:55:15 00:01:19 02:08:12 250
 346 MERRANT Dominique 08:55:52 SAINT BRIEUC TRIATHLON 00:39:01 00:02:50 05:50:57 00:03:12 02:19:50 441
 347 GALLE Alexander 08:55:56 SMO 00:40:00 00:03:16 05:50:38 00:04:48 02:17:12 996
 348 SAMSON Matthieu 08:55:58 CEPS DINAN ARMOR TRIATHLON 00:48:27 00:03:23 05:49:47 00:03:22 02:10:57 193
 349 FERE Gregory 08:56:03 STADE LAURENTIN TRIATHLON 00:48:40 00:03:19 05:49:52 00:01:16 02:12:53 473
 350 POSTOLLEC Lionel 08:56:03 TRIATHLON COTE D AMOUR 00:41:13 00:01:57 05:56:13 00:02:30 02:14:08 561
 351 PALLEZ Thomas 08:56:32 TRIATHLON CLUB DES MONTS DU LYONNAIS 00:45:41 00:03:52 05:56:26 00:03:56 02:06:34 547
 352 EMARD Yann 08:56:34 A.N.S.A 00:39:23 00:02:49 05:41:09 00:05:07 02:28:05 101
 353 HANEGRAAF Bjorn 08:56:51 TRIOSS 00:43:46 00:03:23 05:45:15 00:03:01 02:21:25 1063
 354 TOURRAINE Simon 08:57:02 TRIATHLON ATLANTIQUE CARQUEFOU 00:44:56 00:03:34 06:06:31 00:02:01 01:59:59 531
 355 PEYRET Hugues 08:57:16 LES ALLIGATORS SEYNOD TRIATHLON 00:38:38 00:02:35 05:52:16 00:02:06 02:21:40 344
 356 GUILLOCHAIN Olivier 08:57:23 EPERNEY TRIATHLON 00:40:40 00:03:36 05:58:18 00:03:29 02:11:18 263
 357 TESSON Yohann 08:57:39 LES RAINETTES DU PAYS D AUGE 00:40:56 00:02:49 05:54:54 00:01:11 02:17:48 359
 358 NAVA GUTIERREZ Hugo 08:57:46 BULL TEAM TOLEDO 00:42:52 00:03:29 05:59:19 00:04:06 02:07:58 1182
 359 GUERIN Jean Claude 08:57:53 ORANGE PASSION TRIATHLON 00:38:23 00:03:05 06:00:01 00:05:11 02:11:11 399
 360 THIERRY S´┐Żbastien 08:58:11 TRIATHLON CLUB DE TORCY 00:40:25 00:03:10 06:03:17 00:04:27 02:06:50 537
 361 BERTHIER Ma´┐Żl 08:58:54 TRIATHL AIX - - - - - 525
 362 GRAM Frederikke 08:59:00 TRI CLUB DENMARK 00:46:17 00:03:56 06:03:28 00:01:49 02:03:28 1134
 363 SABATIER Antoine 08:59:01  00:44:23 00:05:06 06:21:11 00:01:16 01:47:02 1283
 364 LEYMARIE Jean Baptiste 08:59:28  00:43:27 00:04:28 05:34:31 00:03:07 02:33:54 1260
 365 BOUTEILLER Julien 09:00:12  00:40:36 00:03:37 05:57:10 00:01:22 02:17:26 1282
 366 LARKIN Shane 09:00:29 LIMERICK TRIATHLON CLUB 00:42:51 00:04:32 06:05:15 00:04:44 02:03:05 664
 367 RICHARDSON Elizabeth 09:00:30 EDINBURGH TRIATHLETES/HARTREE JETS 00:38:09 00:01:48 06:08:33 00:02:47 02:09:12 732
 368 VALLI Giuseppe 09:00:41 3 LIFE A.S.D. 00:47:02 00:06:26 06:03:34 00:02:21 02:01:17 1164
 369 ULIJN Johan 09:00:48 TRIOSS 00:40:57 00:02:37 05:57:54 00:02:43 02:16:36 1062
 370 PUTZKE Marc 09:00:52 TB CANNSTATT 00:38:39 00:03:14 05:39:05 00:04:37 02:35:14 1086
 371 TODEK John 09:00:58 TOS TRIATHLON 00:55:29 00:03:38 05:38:08 00:03:32 02:20:08 506
 372 DE SOUSA Fernando 09:01:00 CA P´┐ŻRIGUEUX TRIATHLON 01:02:05 00:03:34 06:08:09 00:02:24 01:44:46 175
 373 BRANDONE Philippe 09:01:17 LYS CALAIS TRIATHLON 00:36:30 00:02:49 06:19:55 00:02:01 02:00:01 370
 374 GUYON R´┐Żmy 09:01:27  00:45:27 00:07:08 05:47:55 00:04:20 02:16:36 1293
 375 OTOOLE Paul 09:01:45 ALBA ROSA CYCLING CLUB 00:39:30 00:03:17 05:42:43 00:02:22 02:33:51 706
 376 LESUR Franck 09:01:47 TRIATHLON CLUB DE TORCY 00:44:10 00:02:01 06:12:52 00:02:09 02:00:34 540
 377 BARRAND Antoine 09:01:57 BESAN´┐ŻON TRIATHLON 00:45:37 00:04:20 05:54:09 00:02:47 02:15:01 142
 378 NARDINI Claude 09:02:14 MELUN TRIATHLON 00:37:54 00:02:53 06:10:48 00:02:51 02:07:46 375
 379 MERIGUET Jean Christophe 09:02:28 TRIATH CLUB ROYANNAIS 00:43:20 00:05:00 06:04:09 00:03:46 02:06:11 521
 380 BAUDIC Christophe 09:02:41 WILD TEAM TRIATHLON 00:42:55 00:05:31 06:10:51 00:03:36 01:59:46 627
 381 ADEN Alexandre 09:02:51 EPERNEY TRIATHLON 00:43:20 00:03:02 06:02:23 00:01:56 02:12:09 261
 382 JACQUET Fr´┐Żd´┐Żric 09:03:29  00:46:15 00:03:22 05:43:38 00:01:55 02:28:18 928
 383 HAON Rodolphe 09:03:43 CLUB TRINOSAURE LES MUREAUX 00:36:42 00:03:38 06:05:06 00:02:22 02:15:52 214
 384 KEMPA Laurent 09:03:43 CLUB TRINOSAURE LES MUREAUX 00:48:17 00:05:09 05:54:57 00:02:49 02:12:29 222
 385 MOURIER Magali 09:03:55 VALENCE TRIATHLON 00:43:26 00:04:01 06:07:38 00:01:44 02:07:04 604
 386 CHIELENS Roeland 09:04:19 TDL 00:47:29 00:06:44 06:05:50 00:01:58 02:02:17 1004
 387 DETOURBET Antoine 09:04:25  00:50:36 00:06:11 05:51:26 00:05:27 02:10:43 1270
 388 PASQUIS Charles 09:04:27 POISSY TRIATHLON 00:43:29 00:02:52 06:18:33 00:01:52 01:57:39 421
 389 PERRET R´┐Żmy 09:04:58 TRI BIKE 34 00:48:27 00:03:05 05:42:58 00:02:41 02:27:45 510
 390 TROUE Richard 09:05:47  00:54:05 00:04:57 05:48:45 00:04:22 02:13:37 876
 391 GABOLDE Sylvain 09:05:51 RILLIEUX TRIATHLON 00:55:35 00:05:24 06:16:01 00:02:07 01:46:42 438
 392 MCKEOWN Henry Joy 09:06:04 PHILADELPHIA 00:43:23 00:03:43 06:16:58 00:03:48 01:58:11 915
 393 L´┐ŻPEZ FERN´┐ŻNDEZ Jes´┐Żs 09:06:22 C.D UNI´┐ŻN DE TRIATLETAS GRANADINOS 00:37:27 00:03:36 05:53:22 00:04:12 02:27:43 1184
 394 VOOGHT Fabrice 09:06:35  00:41:49 00:04:26 06:06:54 00:03:00 02:10:24 83
 395 O SULLIVAN John 09:06:35 LIMERICK TRIATHLIONCLUB 00:46:22 00:03:43 06:12:39 00:04:12 01:59:37 661
 396 D HERT Tom 09:07:01 TRIATLON TEAM ROESELARE 00:43:13 00:04:33 06:12:36 00:02:58 02:03:40 1006
 397 GLENCROSS Peter 09:07:43  00:41:20 00:04:40 06:06:55 00:03:29 02:11:17 863
 398 FANTIN Beno´┐Żt 09:08:27 TRIATHLON CLUB SEELAND 00:47:56 00:05:13 06:17:55 00:02:23 01:54:58 552
 399 HORRAS Philippe 09:08:49 TRIATHL´┐Ż VANNES 00:47:49 00:04:43 06:02:43 00:04:16 02:09:15 526
 400 LEPAGNOT Marc 09:08:58  00:43:46 00:02:57 06:04:51 00:02:23 02:14:59 1266
 401 TALLON Alan 09:09:06  00:39:16 00:04:59 06:01:58 00:01:56 02:20:55 1237
 402 DERANGERE Maxime 09:09:11 CREUSOT TRIATHLON 00:44:35 00:05:45 05:58:50 00:04:18 02:15:41 235
 403 ROMAN JESUS P´┐Żrez Quintana 09:09:11 CLUB FINISHER TRIATLON 00:43:27 00:04:57 06:17:01 00:02:27 02:01:17 1195
 404 DANIEZ Benoit 09:09:21 TRIATH CLUB ROYANNAIS 00:42:58 00:04:00 06:06:11 00:04:26 02:11:44 522
 405 RIQUIER Adrien 09:09:41  00:44:33 00:06:05 06:00:41 00:05:13 02:13:08 1261
 406 HARTFIEL Armin 09:09:45 TSV VICTORIA LINDEN 00:35:35 00:03:25 05:55:03 00:04:29 02:31:11 1114
 407 CHARASSE Ludovic 09:09:50 LA ROCHELLE TRIATHLON 00:42:16 00:04:33 06:14:06 00:02:38 02:06:15 322
 408 PROUVEUR Thomas 09:10:17 TOBESPORT 00:44:01 00:04:08 05:57:16 00:01:53 02:22:57 496
 409 HAMPSON John 09:10:22 TRI PRESTON 00:45:22 00:03:50 06:07:09 00:02:40 02:11:19 802
 410 REIS FIRMINO Thiago 09:11:13 ASPTT STRASBOURG TRIATHLON 00:52:10 00:02:23 06:00:16 00:02:11 02:14:13 118
 411 DESHORS Lucas 09:11:21 TOBESPORT 00:46:20 00:04:08 06:01:11 00:03:24 02:16:16 499
 412 DIEBOLD Franck 09:11:25  00:48:32 00:04:26 05:45:47 00:03:34 02:29:04 1289
 413 FRANZE Daniel 09:11:44 TSV BOCHOLT 00:40:00 00:02:37 06:20:05 00:02:50 02:06:10 1111
 414 ANGEL SALVADOR Cruz Chardi 09:11:47 CYCLONES CT ALBAL 00:37:30 00:03:45 06:05:48 00:04:51 02:19:51 1201
 415 FOR´┐Ż Peter 09:11:52  00:42:40 00:03:14 06:05:29 00:03:28 02:16:59 1029
 416 CAULIER Guillaume 09:12:06 TRIATHLON ORCHIES PEVELE 00:46:34 00:04:24 06:07:15 00:05:38 02:08:13 579
 417 DELAPORTE Benjamin 09:12:08 TRIATHLON ATLANTIQUE CARQUEFOU 00:50:20 00:03:23 05:51:08 00:02:09 02:25:06 528
 418 BRITO Delio 09:12:27 TRIATHLON CLIB MAASTRICHT 00:39:21 00:03:22 05:56:47 00:02:26 02:30:28 1226
 419 TIMMIS Sarah 09:12:49  00:43:05 00:04:15 06:15:22 00:03:45 02:06:21 871
 420 ROCU Ga´┐Żl 09:12:56  00:51:07 00:06:37 05:56:24 00:05:12 02:13:34 952
 421 BOYLE Andrew 09:13:19  00:44:28 00:02:47 06:13:18 00:02:58 02:09:46 842
 422 RENARD Michel 09:13:39 RENNES TRIATHLON 00:45:00 00:04:44 05:33:09 00:04:28 02:46:16 435
 423 SEARLE Eileen 09:14:01 NELSON TRIATHLON CLUB 00:46:20 00:04:09 06:05:56 00:05:16 02:12:18 912
 424 VANHELLE Simon 09:14:25 HY´┐ŻRES TRIATHLON 00:42:33 00:04:10 06:25:02 00:04:42 01:57:55 304
 425 BILLIAULT Baptiste 09:14:49  00:44:49 00:06:24 06:03:09 00:04:20 02:16:06 1297
 426 VLAMYNCK Hans 09:15:32 TRIUNIC 00:46:01 00:03:49 06:12:58 00:03:26 02:09:15 1010
 427 WILKIN Ben 09:15:37  00:42:22 00:04:38 06:06:35 00:04:06 02:17:54 692
 428 BELLINO Marc 09:16:02 LA ROCHELLE TRIATHLON 00:45:23 00:05:09 06:19:33 00:03:03 02:02:52 316
 429 SWINNERTON Emma 09:16:05 FUL-ON TRI TRIATHLON CLUB 00:43:15 00:03:33 06:20:43 00:01:38 02:06:54 738
 430 SZIKSZAI M´┐Żnika 09:16:12 MEGATHLON SE 00:42:35 00:03:15 06:04:39 00:02:28 02:23:14 636
 431 CHARLES Christopher 09:16:21  00:55:14 00:06:14 05:56:06 00:03:55 02:14:50 956
 432 AJMAR Andrea 09:16:34 AQUATICA TORINO 00:45:20 00:04:27 06:11:58 00:02:56 02:11:50 1167
 433 BOCHEREAU Christophe 09:16:53 LANNION TRIATHLON 00:55:23 00:03:48 06:17:42 00:02:06 01:57:52 330
 434 HOFFSTETTER Olivier 09:17:04 JOOL TEAM 00:43:13 00:04:13 05:59:06 00:02:39 02:27:53 310
 435 CALVER Jonathan 09:17:24 TRI LONDON 00:42:41 00:05:24 06:12:25 00:02:55 02:13:58 514
 436 HENRION Christophe 09:17:34 SG WANTZENAU TRIATHLON 00:39:22 00:03:26 06:18:24 00:02:57 02:13:23 461
 437 OPPERMANN Timo 09:17:43 TRIABOLOS HAMBURG E.V. 00:47:07 00:05:07 06:08:33 00:03:47 02:13:07 1094
 438 SEGURA Christophe 09:17:54 RILLIEUX TRIATHLON 00:41:20 00:03:00 06:22:30 00:02:32 02:08:31 1305
 439 KAIMER Claus 09:18:02 KTK86 00:45:43 00:04:36 06:12:02 00:04:02 02:11:37 1131
 440 DALLA PIETRA Matthieu 09:18:12 HY´┐ŻRES TRIATHLON 00:44:14 00:03:47 06:17:26 00:04:10 02:08:34 292
 441 SAILLANT Damien 09:18:24  00:44:05 00:04:06 06:06:02 00:04:15 02:19:54 1298
 442 VAN HOUTEN Pascal 09:18:25 HELLAS TRIATHLON UTRECHT 00:52:35 00:03:41 06:27:10 00:03:17 01:51:40 1054
 443 ROSSELL´┐Ż Tolo 09:18:40  00:46:36 00:03:41 06:05:21 00:02:15 02:20:45 1179
 444 HIDALGO LUGO Enrique Jose 09:18:52 TRIATLON MAR DE VIGO 00:41:40 00:03:36 06:37:12 00:02:39 01:53:43 1211
 445 RABILLOUD Karl 09:19:05  00:50:24 00:04:53 06:07:52 00:02:48 02:13:06 1279
 446 DE PARISOT Maxence 09:19:06  00:41:52 00:03:36 06:24:54 00:01:45 02:06:57 631
 447 LEGOUIS Samuel 09:19:12 STADE VALERIQUAIS ENDURANCE RUNNING 00:42:52 00:03:41 05:56:06 00:03:27 02:33:04 474
 448 GAUJAC Benoit 09:19:47  00:40:42 00:04:47 06:14:20 00:03:13 02:16:43 1287
 449 VIOLLAIN Benoit 09:19:56 TOS TRIATHLON 00:47:42 00:04:26 06:13:11 00:03:31 02:11:03 507
 450 BLANCO CAZEAUX Bruno 09:19:57 TEAM TRI 86 00:44:20 00:03:15 06:26:52 00:02:13 02:03:15 482
 451 MAUDONNET Bernard 09:20:05 BEAUNE TRIATHLON 00:34:53 00:03:33 05:53:48 00:04:12 02:43:36 135
 452 REUTENAUER Laurent 09:20:50 UCVN 00:46:45 00:03:40 05:54:26 00:07:09 02:28:48 594
 453 BRAULT Robin 09:21:12 STADE FRAN´┐ŻAIS 00:49:33 00:04:39 06:09:08 00:02:32 02:15:19 471
 454 PACCARD V´┐Żronique 09:21:17 BESAN´┐ŻON TRIATHLON 00:43:36 00:03:58 06:10:58 00:03:43 02:19:00 146
 455 SIMON Claude 09:21:27 SHARKS TRIATHLON 00:39:05 00:04:13 06:14:28 00:03:03 02:20:36 462
 456 LEBAIL Romain 09:21:28  00:39:39 00:03:41 06:19:00 00:03:35 02:15:31 1269
 457 TVEDTEN Kimberly 09:21:32 SKJETTEN SV´┐ŻMMING TRIATHLON 00:44:54 00:04:35 06:08:22 00:03:59 02:19:40 918
 458 STALGIS Martin 09:21:42  00:43:18 00:03:25 06:40:22 00:01:34 01:53:01 1119
 459 VERDY Johann 09:21:53 BEAUVAIS TRIATHLON 00:40:24 00:03:10 06:32:06 00:03:59 02:02:12 137
 460 GULLY Jean Marc 09:21:59 SG WANTZENAU TRIATHLON 00:49:09 00:03:33 06:18:36 00:01:58 02:08:42 460
 461 VANERIS Harry 09:22:06 WINDRUSH TRIATHLON CLUB 00:43:23 00:03:21 06:22:04 00:02:13 02:11:03 899
 462 GAUER Hampi 09:22:15 BALZNER SCHWIMMCLUB 00:50:10 00:04:59 05:47:13 00:01:40 02:38:11 1151
 463 LOPEZ HENAO Jose Julian 09:22:29 FUL-ON TRI TRIATHLON CLUB 00:48:11 00:03:39 05:57:03 00:02:33 02:31:00 737
 464 DUMENIL Franck 09:22:43 CEPS DINAN ARMOR TRIATHLON 00:42:01 00:02:47 06:26:54 00:01:20 02:09:39 190
 465 SCHRAFEN Sophia 09:22:57  00:41:09 00:03:53 06:24:04 00:02:19 02:11:30 1117
 466 KOLMAN Roel 09:23:51  00:40:53 00:04:32 06:10:17 00:01:57 02:26:11 1075
 467 DREWS Cole 09:23:57 TEAM TRI GURU 00:33:54 00:03:03 05:56:05 00:05:29 02:45:24 777
 468 COUTURAUD Pascal 09:24:01 DASSAULT SPORTS 00:49:59 00:05:04 06:07:33 00:03:20 02:18:04 239
 469 TASSI Norbert 09:24:03 SIX FOURS TRIATHLON 00:40:12 00:04:44 06:09:25 00:06:15 02:23:26 464
 470 SESTIER Sandrine 09:24:36 VIP ALPE D HUEZ 00:38:58 00:04:03 06:19:39 00:02:44 02:19:11 620
 471 VIDAL Lionel 09:24:40 ECHIROLLES TRIATHLON 00:48:18 00:04:10 05:48:22 00:02:52 02:40:56 249
 472 CAVROIS Valentin 09:24:41 CA B´┐ŻGLAIS TRIATHLON 00:37:16 00:03:32 05:15:59 00:02:28 03:25:25 169
 473 PAPIN Yohan 09:24:43 TRIATH CLUB ROYANNAIS 00:48:06 00:05:48 06:22:30 00:03:37 02:04:40 523
 474 DIAZ Florentin 09:24:48 TRIATHLON ATLANTIQUE CARQUEFOU 00:53:32 00:03:02 06:14:14 00:01:35 02:12:23 529
 475 BERTRAND Nicolas 09:25:12 OXYG´┐ŻNE PSA 00:41:07 00:04:20 06:28:32 00:02:46 02:08:24 413
 476 D´┐ŻAZ CALVO Javi 09:25:15 C.A.PALAFRUGELL 00:46:39 00:07:56 06:33:00 00:04:27 01:53:12 1183
 477 DUPRE Jean-Michel 09:25:32 BEST 00:42:44 00:05:10 06:10:46 00:02:11 02:24:39 147
 478 NESZTLER Florent 09:25:36 HAUT JURA VO3 MAX TRIATHLON 00:45:01 00:03:38 06:25:09 00:02:29 02:09:17 282
 479 LAUDU Patrick 09:25:40  00:43:46 00:03:50 06:31:50 00:03:19 02:02:54 1257
 480 FEUILLADE Vincent 09:25:52  00:45:03 00:05:12 06:04:22 00:03:42 02:27:32 950
 481 FRANKLAND Mark 09:26:05  00:50:22 00:03:33 06:30:17 00:01:42 02:00:10 837
 482 UNDERWOOD Simon 09:26:19  00:43:01 00:05:19 06:03:55 00:04:01 02:30:01 700
 483 POCHOLLE Thierry 09:26:57 LOMME NATATION TRIATHLON 00:41:16 00:05:31 05:42:21 00:04:54 02:52:52 366
 484 HEIJMANS Marcel 09:26:59 TRIOSS 00:47:29 00:03:20 06:18:12 00:04:18 02:13:38 1064
 485 DE RITTER Thomas 09:27:01  00:46:57 00:05:07 06:23:15 00:04:54 02:06:46 891
 486 RUTH Tucker 09:27:05 SWINDON TRI 00:47:01 00:02:12 06:28:59 00:01:29 02:07:22 766
 487 COUSSON S´┐Żbastien 09:27:23 TEAM TRI 86 00:49:01 00:04:36 06:35:09 00:02:12 01:56:24 485
 488 SELMA LUNA Lucas 09:27:37 ZDM 00:43:03 00:03:55 06:18:51 00:05:28 02:16:18 1219
 489 MORGAN David 09:27:45  00:49:55 00:05:42 06:10:04 00:05:10 02:16:52 878
 490 DIJCKMANS Vincent 09:27:47  00:43:16 00:04:13 06:40:27 00:03:12 01:56:36 1304
 491 NONNEMAN Bart 09:28:16 LTC 00:47:30 00:03:43 05:52:33 00:02:54 02:41:35 984
 492 RACOIS Wilfrid 09:28:24 BESAN´┐ŻON TRIATHLON 00:56:27 00:03:34 06:16:15 00:02:12 02:09:54 141
 493 ORLANDI Olivier 09:28:30 HY´┐ŻRES TRIATHLON 00:46:26 00:04:07 06:23:23 00:03:48 02:10:43 299
 494 ALET S´┐Żbastien 09:28:44 TOBESPORT 00:40:17 00:03:13 06:25:34 00:02:17 02:17:20 500
 495 DEWALLEF Pascal 09:29:03 TCBM 00:36:17 00:02:52 06:17:47 00:03:23 02:28:42 998
 496 FONTAINE J´┐Żrome 09:29:35 SENART SAVIGNY TRIATHLON 00:39:50 00:03:08 06:27:11 00:02:56 02:16:29 456
 497 BASLE Bertrand 09:30:12 DAUPHINS DE SCEAUX & BOURG LA REINE 00:46:00 00:05:43 06:26:45 00:07:54 02:03:48 240
 498 TURCZER Petr 09:30:37  00:48:23 00:06:44 06:22:16 00:04:11 02:09:01 648
 499 MATARRELLI Genoveffa 09:30:47 GRANBIKE 00:42:49 00:04:15 06:34:36 00:02:48 02:06:17 1300
 500 BREGET Laurent 09:30:53  00:44:50 00:06:02 06:31:50 00:04:11 02:03:59 1243
 501 ANCESCHI Eduardo 09:30:57  00:41:13 00:04:09 06:33:46 00:03:53 02:07:53 1173
 502 RONDEAU Gr´┐Żgoire 09:31:16 ASL ENGIE 00:46:48 00:06:54 06:30:55 00:07:33 01:59:03 112
 503 MESSAGER Laur´┐Żne 09:31:20  00:58:38 00:06:45 06:29:17 00:03:06 01:53:32 1278
 504 PINGUET Jean Marc 09:31:20 ACBB 00:42:58 00:04:06 06:09:28 00:04:19 02:30:26 104
 505 LLINARES Fabrice 09:31:40  00:49:40 00:05:42 06:17:00 00:04:34 02:14:43 1285
 506 MAINGOT Eric 09:32:00 LA BRIE FRANCILENNE TRIATHLON 00:42:58 00:04:43 06:13:36 00:04:30 02:26:12 314
 507 GUIOT Pascal 09:33:24 SHARKS TRIATHLON 00:42:20 00:03:50 06:11:12 00:04:35 02:31:24 995
 508 G´┐ŻMEZ FERN´┐ŻNDEZ Sandra 09:33:31 CE VILA OLIMPICA 00:50:37 00:05:03 06:27:01 00:03:58 02:06:50 1191
 509 COU´┐Ż Freddy 09:33:33 FONTENAY TRIATHLON CLUB 00:37:19 00:04:02 05:48:34 00:04:47 02:58:49 272
 510 MORIN Gilles 09:33:44 METZ TRIATHLON 00:40:38 00:02:54 06:09:29 00:03:12 02:37:29 377
 511 LEMKECHER Mohamed 09:34:03 CLUB DES NAGEURS DE PARIS / UNION SPORTIVE NATIXIS 00:41:51 00:03:24 06:17:00 00:01:59 02:29:49 210
 512 FLEAU Gilles 09:34:43 TRIATHLON CLUB DE TORCY 00:54:43 00:05:50 06:29:28 00:02:01 02:02:38 546
 513 JOSKIN Philippe 09:35:10 TDCH 00:44:04 00:04:21 06:35:43 00:02:47 02:08:13 1002
 514 MONOT S´┐Żbastien 09:35:20  00:52:34 00:05:02 05:56:57 00:02:52 02:37:53 943
 515 DE RO Wouter 09:35:22  00:44:19 00:05:30 05:52:26 00:07:03 02:46:02 1032
 516 KOENIG Herv´┐Ż 09:35:26 ASPTT STRASBOURG TRIATHLON 00:37:57 00:03:43 06:12:00 00:03:21 02:38:22 117
 517 CROTTI Giorgio 09:35:38 TRI RACE ROCK TEAM 00:55:44 00:04:33 06:31:37 00:01:39 02:02:04 1171
 518 ATWELL Tania 09:35:45  00:42:18 00:04:07 06:23:26 00:03:45 02:22:08 861
 519 MARIE Julien 09:35:50 BLT 00:47:14 00:03:19 06:25:45 00:01:47 02:17:43 150
 520 HOLTON Pete 09:36:19  00:52:03 00:05:07 06:17:54 00:02:49 02:18:23 851
 521 KROLL Marco 09:37:45  00:52:12 00:05:32 06:06:14 00:05:16 02:28:30 1120
 522 BOUDJEMA Fares 09:37:50  00:41:26 00:07:45 06:40:09 00:07:29 02:00:59 634
 523 CROSNIER Eric 09:37:52  00:52:17 00:04:06 06:34:26 00:02:09 02:04:53 1238
 524 GREER Gareth 09:38:26 FAST 00:44:17 00:05:06 05:46:27 00:03:28 02:59:06 908
 525 MADANI Marsadate 09:38:36 HY´┐ŻRES TRIATHLON 00:44:42 00:03:37 06:40:52 00:07:17 02:02:07 296
 526 POMPEE Emmanuel 09:38:52 BRIVES LIMOUSIN TRIATHLON 00:47:38 00:04:31 06:34:11 00:04:04 02:08:26 159
 527 WILSON John 09:39:00  00:49:04 00:03:57 06:40:37 00:03:42 02:01:38 690
 528 AVIGNON Vincent 09:39:29 HY´┐ŻRES TRIATHLON 00:39:09 00:03:50 06:35:15 00:04:44 02:16:29 286
 529 VAN RENS Stef 09:39:37 ATV VENRAY 00:47:59 00:05:21 06:06:31 00:04:03 02:35:40 1049
 530 ANGER Fran´┐Żois 09:39:58 CHAMBERY TRIATHLON 00:35:54 00:03:03 06:17:31 00:02:15 02:41:13 195
 531 TOURNAY Sandrine 09:40:00 CHAMBERY TRIATHLON 00:43:24 00:08:00 06:19:21 00:04:15 02:24:59 197
 532 SALLAULT Eddy 09:40:16 HY´┐ŻRES TRIATHLON 00:37:51 00:03:10 06:30:34 00:02:44 02:25:55 303
 533 SAUTEL Fran´┐Żois 09:40:22 TRIATHLON CLUB DE TORCY 00:48:37 00:06:57 05:50:20 00:05:25 02:49:01 539
 534 HODSKINSON Carl 09:40:26 TEAM TRI GURU 00:43:12 00:03:07 06:39:57 00:02:19 02:11:49 776
 535 LERAY Yann 09:40:28  00:42:45 00:05:20 06:39:13 00:04:12 02:08:56 957
 536 MAJONI Christian 09:40:30 TSV VICTORIA LINDEN 00:48:02 00:03:59 06:07:09 00:05:55 02:35:23 1113
 537 RIMMERMANN Alban 09:40:37 ANTIBES TRIATHLON 00:40:29 00:03:35 06:14:43 00:02:55 02:38:53 106
 538 MOREIRA MARTINS Nuno 09:40:57  00:43:59 00:03:20 05:44:51 00:02:43 03:06:02 1306
 539 LE PETIT Fran´┐Żois 09:41:07 LANNION TRIATHLON 00:58:57 00:06:45 06:01:10 00:05:08 02:29:04 332
 540 REGNAULT Florian 09:41:38 SAINT GR´┐ŻGOIRE TRIATHLON 00:43:20 00:02:47 06:17:39 00:02:41 02:35:08 444
 541 NAJEL Sebastien 09:41:47 COSD TRIATHLON 00:46:37 00:05:23 06:11:34 00:04:01 02:34:10 232
 542 DAURIAT Bruno 09:41:51 MAUGUIO CARNON TRIATHLON 00:45:08 00:05:25 06:09:44 00:02:56 02:38:35 374
 543 DEL FABRO Romain 09:42:27 COURBEVOIE TRIATHLON 00:44:44 00:05:13 06:04:59 00:03:07 02:44:23 233
 544 DEMASSIET Alexis 09:42:30 LES ALLIGATORS SEYNOD TRIATHLON 00:46:34 00:11:26 06:28:59 00:03:52 02:11:37 345
 545 GENCEY Pierre 09:42:46 LES PIRANHAS 00:46:47 00:03:41 06:25:53 00:07:25 02:19:00 352
 546 BESANCENOT Jean-Marie 09:42:58  00:44:47 00:05:30 06:20:22 00:03:24 02:28:54 1277
 547 BAVEREL Bertrand 09:42:59 BESAN´┐ŻON TRIATHLON 00:45:31 00:04:17 06:35:21 00:03:37 02:14:12 139
 548 MERCIER Nicolas 09:43:16 TRIATH CLUB D ANDRESY 00:48:11 00:04:27 06:36:04 00:05:19 02:09:13 524
 549 ALLES David 09:43:29 LANNION TRIATHLON 00:43:29 00:03:57 06:27:35 00:06:07 02:22:18 333
 550 QUEENAN Derek 09:43:39 COLT 00:48:09 00:04:01 06:20:10 00:02:46 02:28:31 725
 551 BROSSEAU Florence 09:43:40 US PALAISEAU 00:54:12 00:03:20 06:39:21 00:01:27 02:05:17 77
 552 GARNIER Yvan 09:43:46 TRIMAY 00:46:03 00:04:44 06:28:24 00:04:50 02:19:43 1302
 553 SCHRYVE Fr´┐Żd´┐Żric 09:44:03 LILLE TRIATHLON 00:53:30 00:06:45 06:17:04 00:03:35 02:23:07 361
 554 FOX Simon 09:44:23 MERSEY TRI 00:43:30 00:03:55 06:50:52 00:03:49 02:02:15 751
 555 WARNER Shane 09:44:51  00:50:54 00:05:51 06:22:10 00:05:15 02:20:39 654
 556 WORRALL Carl 09:45:13  00:48:58 00:04:54 06:33:49 00:02:01 02:15:28 867
 557 CHRISTEN Urvan 09:45:22  00:43:44 00:06:17 06:20:37 00:04:37 02:30:05 1268
 558 CHARPENTIER Benoit 09:45:28 EPERNEY TRIATHLON 00:52:28 00:04:07 06:29:18 00:03:23 02:16:10 264
 559 DURUPT St´┐Żphane 09:45:49 GGTRI 00:52:08 00:04:46 06:29:17 00:02:02 02:17:34 274
 560 MARSAUD Alexandre 09:45:51 TRITYC 01:00:20 00:05:00 06:19:24 00:02:55 02:18:10 587
 561 STARLING Gavin 09:46:09  00:59:00 00:04:32 06:32:02 00:03:17 02:07:17 885
 562 DUMONTEL Herv´┐Ż 09:46:22 AURILLAC TRIATHLON 00:41:04 00:04:33 06:33:18 00:05:59 02:21:26 125
 563 MORENO TELLO Javier 09:46:28  00:42:10 00:04:09 06:30:03 00:05:21 02:24:44 1178
 564 VOLANT St´┐Żphane 09:46:30 ESPERANCE CHARTRES DE BRETAGNE 00:48:01 00:04:21 06:21:39 00:04:10 02:28:17 268
 565 PARKINSON Lynne 09:46:42 FLEET FEET TRIATHLETES 00:41:17 00:03:32 06:39:51 00:02:53 02:19:07 735
 566 CHALA Olivier 09:46:44 TEAM TRIATHLON ROQUEBRUNE 00:47:33 00:03:37 06:24:55 00:04:38 02:26:00 1310
 567 BAH Malik 09:46:45  00:49:21 00:06:42 06:26:57 00:04:16 02:19:27 1239
 568 GRAILLE Arnaud 09:47:00  00:49:18 00:04:15 06:26:12 00:02:23 02:24:49 936
 569 PROUTEAU Nicolas 09:47:17 LA ROCHE VEND´┐ŻE TRIATHLON 00:43:36 00:03:52 06:17:35 00:03:53 02:38:19 315
 570 ANDERSON Gareth 09:47:23 HIGH WYCOMBE 00:43:08 00:05:15 06:07:06 00:05:33 02:46:19 744
 571 JAKSON Laurent 09:47:42 LEMAN TRIATHLON CLUB 00:47:05 00:04:38 06:35:01 00:03:23 02:17:33 339
 572 HELAINE Alexandre 09:48:26  00:42:26 00:04:03 06:28:38 00:01:37 02:31:40 946
 573 BRABANT G´┐Żraldine 09:48:37 FONTENAY TRIATHLON CLUB 00:36:32 00:04:07 06:29:46 00:02:36 02:35:34 273
 574 LOUVEL Xavier 09:48:55 LES PIRANHAS 00:55:46 00:04:07 06:46:27 00:02:13 02:00:20 356
 575 LACOSTE Emmanuel 09:49:09 BRIVES LIMOUSIN TRIATHLON 00:43:29 00:04:46 06:44:25 00:02:58 02:13:29 160
 576 HARTLEY Ciaran 09:49:12  00:44:38 00:03:58 06:55:22 00:01:33 02:03:39 675
 577 FEROS Joel 09:49:16  00:36:57 00:04:55 06:26:49 00:04:10 02:36:23 900
 578 VAN IMPE Bart 09:49:23 3KTL 00:38:42 00:02:26 06:48:19 00:01:51 02:18:04 967
 579 DE GELDER Giovanni 09:49:49  00:52:05 00:05:15 06:18:58 00:06:11 02:27:18 1046
 580 LE RHUN Jean Luc 09:50:14 LANNION TRIATHLON 00:48:19 00:04:02 06:34:52 00:04:31 02:18:28 331
 581 PARSONS Jon 09:50:31 TRIATHLON ENGLAND 00:58:10 00:04:01 06:17:37 00:04:06 02:26:36 895
 582 ADRIAN Pineda 09:50:40  00:52:25 00:06:54 06:39:42 00:03:17 02:08:19 1229
 583 RENZI Davide 09:50:52  00:45:16 00:05:40 06:27:31 00:01:54 02:30:30 1174
 584 VIDAL Vanessa 09:50:58 CHAMBERY TRIATHLON 00:41:02 00:02:04 06:35:15 00:02:01 02:30:35 1313
 585 BOURREL Nicolas 09:51:02 TEAM TRIATHLON ROQUEBRUNE 00:52:45 00:03:42 06:35:03 00:02:21 02:17:09 491
 586 ANTRIEUX Beno´┐Żt 09:51:07 BOURG EN BRESSE TRIATHLON 00:47:27 00:10:03 06:39:37 00:11:34 02:02:23 151
 587 DEL REGNO Marco Donato 09:51:09 HAPPY RUNNER 00:50:32 00:04:38 06:14:19 00:05:14 02:36:22 1169
 588 DUMONT Sylvain 09:51:31 PUISSANCE 3 COURNON 00:45:40 00:04:51 06:28:38 00:03:51 02:28:30 432
 589 DUHAMEL David 09:51:32 LES PIRANHAS 00:32:06 00:03:31 06:53:28 00:06:28 02:15:56 355
 590 CLOIX Denis 09:51:34 DEAUVILLE TROUVILLE TRIATHLON 00:56:54 00:04:41 06:39:50 00:01:34 02:08:33 242
 591 DI GENNARO Giulio 09:51:51 POISSY TRIATHLON 00:47:54 00:03:42 06:37:15 00:03:02 02:19:57 423
 592 TANGUY St´┐Żphane 09:51:56 MORLAIX TRIATHLON 00:36:36 00:04:55 06:19:10 00:05:04 02:46:09 385
 593 BAISSI Kamel 09:52:03 SENART SAVIGNY TRIATHLON 00:54:24 00:05:51 06:25:38 00:05:53 02:20:15 453
 594 PROTON J´┐Żr´┐Żme 09:52:34 LA ROCHELLE TRIATHLON 00:45:54 00:04:45 06:41:14 00:02:58 02:17:41 318
 595 HALLOUIN S´┐Żbastien 09:53:17  00:56:49 00:05:14 06:08:42 00:08:09 02:34:20 1240
 596 VAN DE VOSSENBERG Stephan 09:53:18 TRIOSS 00:39:14 00:02:55 06:23:07 00:03:46 02:44:14 1066
 597 PEPPER Claire 09:53:20  00:46:25 00:03:58 06:45:40 00:04:17 02:12:58 859
 598 VARIGAS Damien 09:53:32 C.A.B´┐ŻGLAIS TRIATHLON 00:40:16 00:03:43 06:49:31 00:03:43 02:16:18 162
 599 MATTILA Karol 09:53:34 HELSINKI TRIATHLON 00:51:29 00:03:39 06:30:26 00:04:29 02:23:28 1140
 600 MARSCHALL Bernhard 09:53:52  00:36:50 00:03:29 06:04:57 00:03:38 03:04:56 1128
 601 CAMBIASO Alessandro 09:53:59  00:52:07 00:04:33 06:31:35 00:04:22 02:21:20 1163
 602 JOUSSE Olivier 09:55:18 M.A.T 72 LE MANS ASSOCIATION TRIA 00:46:51 00:03:46 06:51:27 00:02:26 02:10:46 371
 603 BOURGOIS Simon 09:55:28 LES PIRANHAS 00:46:09 00:04:20 06:42:54 00:05:04 02:16:59 354
 604 OSBORNE Jane 09:55:37 FUL-ON TRI TRIATHLON CLUB 00:45:44 00:03:28 06:46:01 00:04:36 02:15:45 736
 605 MARK Lyons 09:55:56  00:45:56 00:03:24 06:26:40 00:02:40 02:37:15 875
 606 MARSAN Matthieu 09:56:01 HY´┐ŻRES TRIATHLON 00:40:24 00:02:54 06:24:20 00:01:46 02:46:35 297
 607 BRETON Benjamin 09:56:01 HY´┐ŻRES TRIATHLON 00:35:52 00:03:40 06:21:51 00:02:06 02:52:30 287
 608 THEAUD Mika´┐Żl 09:56:09 TRIATHLON COTE D AMOUR 00:48:55 00:04:47 06:33:24 00:02:28 02:26:34 567
 609 BUTEUX Arnaud 09:56:23 TRIATHLON CLUB DE TORCY 00:37:46 00:03:51 06:33:03 00:04:44 02:36:58 542
 610 MACKIE Alice 09:56:30  00:48:57 00:04:04 06:38:31 00:02:52 02:22:04 856
 611 GABORIEAU Julien 09:56:48  00:50:29 00:05:17 06:36:00 00:03:02 02:21:58 931
 612 SMITH James 09:56:50 RAF TRIATHLON 00:55:04 00:06:31 06:39:28 00:04:34 02:11:12 763
 613 TROTT James 09:56:51  00:43:45 00:02:54 06:12:02 00:02:25 02:55:42 883
 614 K´┐ŻHL Stefan 09:57:21 TRIATHLON-CLUB-ESSEN 00:53:26 00:05:58 06:42:58 00:04:52 02:10:05 1097
 615 URGEL J´┐Żr´┐Żme 09:57:52 CA P´┐ŻRIGUEUX TRIATHLON - - - - - 176
 616 KREY Folkert 09:58:02 TEAM ERDINGER ALKOHOLFREI 00:40:40 00:03:43 06:40:26 00:02:49 02:30:22 1089
 617 INNOCENTI Alain 09:58:55 AUBAGNE THRIATLON 00:52:01 00:04:04 06:38:01 00:02:07 02:22:40 121
 618 URWIN Corey 09:59:00 EAST COAST AC 00:47:38 00:03:54 06:49:10 00:02:34 02:15:42 729
 619 VIGUIER Thierry 09:59:22 HY´┐ŻRES TRIATHLON 00:40:18 00:02:54 06:25:47 00:14:55 02:35:26 305
 620 GAUDICHAU Jean-Marie 10:00:06 TRISAL´┐ŻVE ANNEMASSE AGGLO. 00:46:38 00:04:21 06:42:26 00:02:54 02:23:44 586
 621 CROZIER Herv´┐Ż 10:00:25  00:38:34 00:04:52 06:47:59 00:06:34 02:22:23 1295
 622 GONZALEZ P´┐ŻREZ Teodoro 10:00:27  00:46:26 00:06:44 06:47:35 00:03:15 02:16:25 1221
 623 VERDEIL Christophe 10:01:44 NOGENT SOLIDARIT´┐Ż TRIATHLON 00:46:57 00:05:29 06:32:07 00:04:05 02:33:04 396
 624 CAVAGNI Bruno 10:01:50 METZ TRIATHLON 00:49:04 00:05:16 06:54:59 00:03:58 02:08:32 378
 625 BRENNA Brenna 10:01:50 POLISPROTIVATEAM BRIANZA AS DILETTANTISTICA 00:50:42 00:06:08 06:39:16 00:02:56 02:22:46 1170
 626 MORANCE Cyril 10:01:52 WASQUEHAL 00:47:39 - - - - 625
 627 KRUGER Danie 10:01:59 FAST 00:47:44 00:07:04 06:56:41 00:03:37 02:06:51 906
 628 MORTAGNE Thomas 10:02:17 CAEN TRIATHLON 00:36:11 00:03:55 06:53:42 00:06:27 02:21:59 184
 629 REYGNIER Jean-Jacques 10:02:41 TOS TRIATHLON 00:47:08 00:03:47 07:00:40 00:02:36 02:08:28 502
 630 MICHEL Aur´┐Żlien 10:02:52 TRIATHLON ORCHIES P´┐ŻV´┐ŻLE - - - - - 581
 631 PELTIER Sarah 10:02:59  00:43:56 00:04:09 06:55:49 00:04:38 02:14:26 923
 632 BALE James 10:03:08 TAVISTOCK TRIATHLON CLUB 00:47:20 00:04:43 06:45:12 00:02:43 02:23:07 770
 633 MARLANGUE Hubert 10:03:35 CORSICA TRIATHLON CLUB D AJACCIO 00:56:07 00:05:07 06:50:16 00:02:13 02:09:50 231
 634 TROUILLIER S´┐Żbastien 10:03:43 AURILLAC TRIATHLON 00:42:56 00:06:47 07:02:30 00:03:26 02:08:03 128
 635 DUQUESNE Emmanuel 10:04:32 TCDM 00:46:55 00:05:01 06:36:49 00:02:17 02:33:29 1001
 636 BREUILL´┐Ż Nicolas 10:04:33  00:49:00 00:03:18 06:52:44 00:02:20 02:17:08 951
 637 SCHREURS S´┐Żbastien 10:04:40 UTT 00:53:25 00:06:03 06:39:56 00:04:13 02:21:00 1015
 638 WINKELMOLEN Remo 10:04:49  00:58:22 00:06:02 06:50:57 00:06:26 02:03:01 1045
 639 LE´┐ŻA ARISTU V´┐Żctor 10:04:56 TRIRUNNER 00:49:07 00:04:41 06:36:28 00:04:32 02:30:07 1217
 640 ERNOU Yannick 10:04:58  00:51:42 00:06:36 06:56:37 00:09:54 02:00:08 1249
 641 LEROUX Loic 10:05:10 TRIATHLON COTE D AMOUR 00:40:05 00:04:56 06:37:59 00:04:04 02:38:04 569
 642 VIOLANTE Dario-Dominique 10:05:30 TRIATHLON CLUB MONTOIS 00:52:36 00:06:04 06:39:45 00:07:47 02:19:17 550
 643 PANIER Fran´┐Żois 10:06:02 HY´┐ŻRES TRIATHLON 00:48:02 00:03:35 07:02:48 00:02:20 02:09:14 301
 644 WEYERS Filip 10:06:11 TRIUNIC 00:48:08 00:04:58 06:53:16 00:02:56 02:16:51 1011
 645 VAN ESPEN St´┐Żphane 10:06:36  01:01:33 00:04:15 06:47:08 00:03:04 02:10:34 1026
 646 STUTHRIDGE Gail 10:07:05  00:47:59 00:04:16 06:34:03 00:03:15 02:37:30 874
 647 MAURISSEN Herv´┐Ż 10:07:11 TCBM 00:40:49 00:03:32 06:46:22 00:02:15 02:34:11 1000
 648 SAUVEPLANE Marc 10:07:24  00:52:08 00:04:40 06:43:51 00:01:29 02:25:15 958
 649 MARILLEAUD Gaelle 10:07:36 T.C.G. 79 PARTHENAY 00:42:22 00:03:15 07:48:16 00:03:42 01:29:59 476
 650 SALVA Olivier 10:07:59  00:55:31 00:07:26 06:40:04 00:02:17 02:22:39 1254
 651 BELLIN Christophe 10:07:59 TRIBIKE 34 00:57:33 00:04:19 06:37:22 00:03:39 02:25:04 583
 652 GUEUNING Beno´┐Żt 10:08:02  00:59:33 00:03:43 06:44:30 00:03:30 02:16:44 84
 653 FAULKNER Richard 10:08:29  00:47:22 00:03:57 06:57:32 00:02:30 02:17:06 683
 654 MCATEER Larry 10:08:30 HIELBOW TRIATHLON CLUB 00:43:19 00:04:48 06:39:41 00:04:13 02:36:27 657
 655 KLEIN-HITPA´┐Ż Guido 10:08:43  00:55:28 00:05:53 06:34:19 00:03:19 02:29:41 1121
 656 MORTON Phil 10:08:57  00:43:10 00:06:05 06:47:54 00:05:29 02:26:17 880
 657 BERGER Gaelle 10:08:59 VIP ALPE D HUEZ 00:55:00 00:06:29 06:52:41 00:02:03 02:12:45 621
 658 MACHERET Jean 10:09:06 EPERNEY TRIATHLON 01:00:51 00:07:07 06:34:26 00:03:15 02:23:25 259
 659 MOLET Cyril 10:09:10 CAVAILLON TRIATHLON CLUB 00:46:04 00:03:27 06:24:02 00:04:17 02:51:18 185
 660 AUVARO Olivier 10:09:21 ORANGE PASSION TRIATHLON 00:41:47 00:04:01 06:53:36 00:03:05 02:26:50 408
 661 SOYER Laurent 10:09:24 LA ROCHELLE TRIATHLON 00:46:39 00:04:50 06:55:32 00:03:51 02:18:31 324
 662 MOLINA Sylvain 10:09:37 SENART SAVIGNY TRIATHLON 00:51:05 00:04:44 06:43:46 00:09:05 02:20:56 454
 663 WARREN Stuart 10:09:48 WVTRI 00:43:42 00:04:20 06:58:02 00:03:11 02:20:31 826
 664 FOLEY Keith 10:10:22  00:47:38 00:09:56 06:38:02 00:05:43 02:29:01 843
 665 BARRE Violaine 10:11:37 LAVAL TRIATHLON CLUB 00:50:03 00:03:26 06:49:30 00:04:12 02:24:24 336
 666 PASTOR IGLESIAS Oscar 10:11:52 TRIPLAY LLOBREGAT 00:39:41 00:04:19 06:28:41 00:08:07 02:51:02 1216
 667 MUNIER Mickael 10:12:57 TRIATHLON LANEUVEUVILLE DEVANT NANCY 00:48:28 00:05:37 06:57:28 00:02:42 02:18:40 576
 668 PASQUIER Jean Pierre 10:13:22 HY´┐ŻRES TRIATHLON 00:51:06 00:06:33 06:43:04 00:03:36 02:29:01 302
 669 ULIJN Jeroen 10:13:33 TRIOSS 00:45:47 00:02:58 06:42:01 00:05:52 02:36:54 1065
 670 SAULAIS Arnaud 10:13:42 CNN TRI NYON 00:45:34 00:03:39 07:15:56 00:04:59 02:03:32 225
 671 COUTANT Fran´┐Żois 10:14:20 FINISHERS D ANTIBES 00:44:01 00:06:48 06:42:19 00:04:59 02:36:10 269
 672 MORGEON Vanessa 10:14:35 CHARLEVILLE TRIATHLON ARDENNES 00:47:31 00:03:31 06:51:28 00:03:13 02:28:51 199
 673 BURMS Dane 10:14:54  00:37:58 00:03:51 07:07:55 00:02:40 02:22:29 1036
 674 WEDGWOOD Anna 10:14:57 TRI MONTAGNE 00:55:03 00:04:30 06:52:48 00:03:29 02:19:05 801
 675 CORCORAN Paul 10:15:19 LIMERICK TRIATHLON CLUB 00:41:06 00:04:46 06:39:21 00:04:52 02:45:12 662
 676 RONDI Lorena 10:15:25 ACBB 00:47:19 00:03:55 07:08:59 00:03:00 02:12:09 105
 677 GALLAIS Morgan 10:15:47 TEAM TRIATHLON ROQUEBRUNE 00:43:59 00:03:15 06:42:33 00:01:56 02:44:01 492
 678 FOURE Guy 10:15:54 POISSY TRIATHLON 00:49:21 00:04:38 06:47:01 00:03:47 02:31:05 430
 679 NOURRY Baptiste 10:16:00  00:49:29 00:06:20 06:51:19 00:04:05 02:24:44 1271
 680 GRONDIN Alain 10:16:02  00:49:06 00:05:09 06:42:58 00:04:04 02:34:44 1235
 681 CAROLAN Ciaran 10:16:10 OLYMPIAN 00:42:34 00:02:16 07:01:46 00:04:59 02:24:32 670
 682 MALLET Nicolas 10:16:29 ORANGE PASSION TRIATHLON 00:55:50 00:04:35 06:54:54 00:04:53 02:16:15 406
 683 SANCHEZ GARRIDO Miguel Angel 10:16:39 TRIATLO PORTOCOLOM HERBES-TUNEL 00:39:59 00:06:02 06:55:21 00:08:15 02:27:00 1210
 684 BARRIELLE Jean Remy 10:16:47 AS ENERGIE 91 00:54:03 00:05:00 06:52:04 00:03:38 02:22:00 110
 685 CRAND Frederic 10:17:07 LANNION TRIATHLON 00:49:02 00:06:36 06:55:31 00:02:35 02:23:21 327
 686 SAINTE-BEUVE Jean 10:17:09 T.C. JOU´┐Ż LES TOURS 00:48:15 00:06:31 06:27:42 00:04:47 02:49:50 475
 687 DEYRES Gwladys 10:17:15 FONTANIL TRIATHLON 00:42:51 00:03:22 06:47:29 00:04:37 02:38:55 271
 688 SMITH Chris 10:17:24  00:42:38 00:05:24 07:12:59 00:03:56 02:12:26 872
 689 GALMICHE Alexandre 10:17:38 US M´┐ŻTROPOLITAINE DES TRANSPORTS 00:40:04 00:03:27 06:54:26 00:04:05 02:35:33 599
 690 MUTH Stephanie 10:17:45  00:49:59 00:04:34 06:55:17 00:02:39 02:25:13 1118
 691 LASPOUGEAS Fabrice 10:18:08 TRIATHLON COTE D AMOUR 00:38:08 00:02:52 07:09:29 00:05:20 02:22:17 563
 692 BARBIER Pierre 10:18:19  00:54:06 00:03:42 07:03:58 00:03:08 02:13:23 933
 693 BORREGA RIBERA Fernando 10:18:24 TRIATHLON CLUB DE TORCY 00:43:38 00:05:02 07:04:26 00:02:46 02:22:31 545
 694 FAULKNER Richard 10:18:25  00:40:27 00:01:37 07:15:27 00:00:51 02:20:00 313
 695 M´┐ŻLLMANN Udo 10:18:26 TSV BOCHOLT 00:52:02 00:05:44 07:06:10 00:04:54 02:09:34 1107
 696 LEVRARD Thibaut 10:18:40 CLUB TRINOSAURE LES MUREAUX 00:54:06 00:04:47 07:07:28 00:01:52 02:10:26 224
 697 GULLIENT Jerome 10:18:54  00:45:32 00:06:25 06:56:17 00:05:03 02:25:35 1242
 698 BERHAUT Morgan 10:18:55  00:44:25 00:07:32 06:56:17 00:05:03 02:25:36 1241
 699 SOULARD Fr´┐Żd´┐Żric 10:19:17 TEAM TRI 86 00:42:39 00:04:44 07:01:30 00:02:49 02:27:33 483
 700 GOURDET Anne 10:20:09 BOURGES TRIATHLON 00:43:34 00:03:10 07:02:31 00:04:52 02:26:00 154
 701 DAVIES Bleddyn-James 10:20:19  00:40:38 00:05:15 07:07:50 00:03:26 02:23:08 839
 702 ZEEB Bill 10:20:30  00:44:22 00:03:49 06:46:35 00:03:18 02:42:24 916
 703 CABIOCH Laurent 10:21:10 HY´┐ŻRES TRIATHLON 00:43:27 00:03:12 06:59:37 00:05:14 02:29:39 288
 704 GODDARD Annica 10:21:10 SY TRI (SHREWSBURY TRIATHLON) 00:42:04 00:03:40 07:07:02 00:03:55 02:24:28 769
 705 LONGONI Philippe 10:21:46 CAEN TRIATHLON 00:52:09 00:05:20 06:57:06 00:03:45 02:23:24 179
 706 LHUILLIER Herv´┐Ż 10:21:52 BESAN´┐ŻON TRIATHLON 00:53:48 00:04:42 06:27:46 00:03:58 02:51:36 138
 707 KNAM Alexander 10:21:55 TRI-TEAM SSV ETTLINGEN 00:49:05 00:04:37 06:46:26 00:05:25 02:36:20 1100
 708 KUITTINEN Henna 10:22:03 TRIATHLONSUOMI 00:52:50 00:03:35 07:02:23 00:05:08 02:18:06 1142
 709 RICHER Fr´┐Żd´┐Żric 10:22:18 ORANGE PASSION TRIATHLON 00:53:14 00:04:38 06:51:46 00:04:24 02:28:13 405
 710 METZNER Claudia 10:22:20 TRIATHLON TEAM HAMBURG 01:02:45 00:03:19 06:36:07 00:02:03 02:38:03 9
 711 PINCHART Michael 10:23:01  01:07:21 00:03:22 06:32:40 00:01:53 02:37:43 1027
 712 SCHAEFFER Didier 10:23:28 CONSEIL EUROPE TRI 00:58:45 00:04:19 06:48:01 00:04:52 02:27:29 227
 713 GLOVER Danny 10:23:37 SY TRI (SHREWSBURY TRIATHLON) 00:43:03 00:03:57 06:54:23 00:02:56 02:39:16 767
 714 LE GORJU Erwan 10:23:54 LANNION TRIATHLON 00:54:58 00:06:05 06:41:43 00:04:24 02:36:43 329
 715 SCHLUETTER Ludger 10:24:16 TSV BOCHOLT 00:51:37 00:04:22 07:03:01 00:03:10 02:22:05 1112
 716 DUTHOIT Olivier 10:24:54 ORANGE PASSION TRIATHLON 00:48:20 00:03:46 07:01:35 00:03:37 02:27:34 398
 717 MCKENZIE Shannon 10:25:01 WESTERN SUBURBS TRIATHLON CLUB 00:46:09 00:05:17 06:42:19 00:04:58 02:46:16 898
 718 PALMER Brian 10:25:10 N/A 00:50:35 00:06:09 06:42:32 00:03:14 02:42:38 757
 719 HUVER Nicolas 10:26:07  00:58:50 00:08:07 06:45:51 00:04:49 02:28:28 635
 720 TURON SERRA Jordi 10:26:30 CT DEVOURIN KILOMETERS 00:53:12 00:04:37 07:17:04 00:01:53 02:09:42 1200
 721 STUBBS Claire 10:26:48 TENBY ACES 00:49:12 00:03:27 07:02:11 00:03:23 02:28:33 785
 722 RIEKIE Rob 10:28:39 TEAM MK 00:48:19 00:04:16 07:03:18 00:02:14 02:30:30 772
 723 LAMARQUE Guillaume 10:29:30 METZ TRIATHLON 00:43:16 00:03:07 06:51:05 00:03:30 02:48:29 379
 724 RUIZ Alain 10:29:35  00:51:51 00:07:05 07:11:27 00:05:47 02:13:23 1234
 725 TAYLOR Robert 10:29:52  00:50:38 00:06:48 06:51:23 00:06:48 02:34:14 917
 726 WILLERSINN Elke 10:30:13 TSG MAXDORF 00:44:27 00:03:55 06:58:35 00:02:44 02:40:30 1102
 727 ROUDET Gustave 10:30:19  00:42:14 00:04:33 06:24:20 00:05:12 03:13:58 1286
 728 ALVAREZ Marcela 10:31:13  00:41:43 00:03:41 07:39:09 00:02:32 02:04:06 1228
 729 LYNAM Mark 10:31:21  00:57:55 00:09:05 06:50:51 00:03:40 02:29:47 673
 730 LOPEZ Fabrice 10:31:30 CA P´┐ŻRIGUEUX TRIATHLON 00:54:21 00:04:04 07:05:57 00:03:10 02:23:56 174
 731 P´┐ŻREZ D´┐ŻAZ Pedro A 10:31:32  00:58:18 00:07:04 07:08:42 00:05:42 02:11:43 1222
 732 CARREAU Vincent 10:31:44  00:47:06 00:05:09 - - - 1288
 733 JUAN JOSE Bodi Font 10:31:51 CLUB ATLETIC PALAFRUGELL 00:43:13 00:03:23 07:04:17 00:05:57 02:34:59 1193
 734 COX Simon 10:31:55  00:48:22 00:05:08 07:10:58 00:04:04 02:23:22 913
 735 HEIDA Marnix 10:32:02  00:52:15 00:03:51 06:50:12 00:04:32 02:41:10 1070
 736 GARBA Thomas 10:32:09 TSV BADEN ´┐ŻSTRINGEN 00:46:21 00:04:46 06:43:07 00:02:59 02:54:54 1103
 737 RIES Achim 10:32:26 BRANDER SV TRI TEAM 00:44:33 00:05:26 07:02:45 00:05:03 02:34:37 1078
 738 GOODALL Chris 10:32:29 TRI TEAM WESSEX 00:48:03 00:05:14 06:59:52 00:07:18 02:32:00 803
 739 GOVERNA Gianni 10:32:56 ASD CNM TRIATHLON 00:49:04 00:10:55 07:05:11 00:08:32 02:19:11 1168
 740 DEPOUILLON Dirk 10:33:00 TRIUNIC 00:53:22 00:05:33 07:05:09 00:04:01 02:24:53 1009
 741 MIRKO Raimondi 10:33:34  00:45:59 00:06:28 06:57:34 00:07:02 02:36:29 85
 742 GUILLOU Fran´┐Żois 10:33:43 TRIATHLON COTE D AMOUR 00:45:56 00:06:05 07:07:48 00:01:50 02:32:02 560
 743 REICHER Gilles 10:34:21 TRITYC 00:52:09 00:03:12 07:25:04 00:04:48 02:09:06 590
 744 COUSSON Gwendoline 10:34:22 TEAM TRI 86 00:52:04 00:05:42 07:12:28 00:03:11 02:20:56 484
 745 DE JONG Anne 10:34:23 AV IMPALA 00:43:52 00:04:07 07:12:53 00:03:09 02:30:20 1050
 746 GUENNO Lo´┐Żc 10:34:25 TRIATHLON CLUB DE TORCY 00:44:30 00:05:23 07:12:18 00:05:13 02:26:58 541
 747 PILLAUD Damien 10:34:32 WILD TEAM TRIATHLON 00:45:30 00:06:59 06:51:33 00:04:11 02:46:16 628
 748 DREYDEMY Olivier 10:35:13  00:46:28 00:04:37 06:31:57 00:07:29 03:04:41 927
 749 MOUGEOLE Eric 10:35:56  00:50:26 00:04:07 07:19:48 00:04:42 02:16:51 1281
 750 BAILEY Alexander 10:36:19  00:45:36 00:03:44 06:54:19 00:03:58 02:48:40 870
 751 KEMP Dan 10:36:20 CHIPPENHAM TRI 00:40:55 00:03:36 07:01:23 00:03:04 02:47:20 724
 752 BATT Thomas 10:36:20 TRIATHLON HOCHFELDEN 00:45:06 00:05:09 07:05:08 00:04:59 02:35:57 575
 753 MINTO Chris 10:36:31 1485 TRIATHLON 00:54:42 00:03:43 07:07:30 00:04:29 02:26:05 703
 754 LOGNARD Edwin 10:36:35 TTRS 00:49:16 00:05:35 07:10:08 00:03:33 02:28:01 1014
 755 BLANCOT Roland 10:36:42 AURILLAC TRIATHLON 00:46:23 00:04:29 07:16:31 00:03:38 02:25:39 130
 756 BIRCHER Andy 10:36:55 TRIATHLONVERBAND LIECHTENSEIN 00:57:03 00:04:06 06:57:18 00:03:17 02:35:10 652
 757 LASTECOUERES St´┐Żphane 10:37:01 TRIATHLON DES PIRANHAS DE DIEPPE 00:50:57 00:06:41 06:51:07 00:05:23 02:42:51 573
 758 HATTIGER Bastien 10:37:26 CYD 00:50:40 00:07:12 07:16:06 00:04:36 02:18:50 238
 759 RIDLEY James 10:37:46  00:51:38 00:03:32 07:16:11 00:01:41 02:24:41 827
 760 BARONI Roland 10:37:56 TRIGT 00:42:02 00:05:49 07:33:56 00:03:03 02:13:03 1007
 761 GROSS Marie-Reine 10:38:10 ASPTT STRASBOURG TRIATHLON 00:51:07 00:05:01 06:59:22 00:02:39 02:39:58 115
 762 VIENNOT St´┐Żphanie 10:38:22 SAINT PRIEST TRIATHLON 00:47:13 00:06:14 07:35:48 00:04:44 02:04:21 447
 763 THOME Mathieu 10:38:57 EPERNEY TRIATHLON 00:45:06 00:04:38 06:56:00 00:04:23 02:48:47 262
 764 CLAVEY Vincent 10:39:01 LES HYDROCYCLOPEDS 00:51:13 00:07:14 07:09:36 00:03:49 02:27:07 346
 765 FOUQUES Jean Pierre 10:39:48 HY´┐ŻRES TRIATHLON 00:50:19 00:05:37 07:12:30 00:04:26 02:26:54 293
 766 BOITIAUX Christophe 10:39:52 ISSY TRIATHLON 00:50:04 00:05:12 07:18:14 00:02:51 02:23:28 90
 767 HUTTON Danny 10:40:09 SOUTH LONDON HARRIERS 00:51:49 00:05:30 07:12:30 00:02:19 02:28:01 765
 768 GUILLOUX Sylvain 10:40:16 V´┐ŻN´┐ŻTES TRIATHLON 00:50:52 00:06:14 06:54:47 00:05:16 02:43:05 617
 769 LYONS Steve 10:40:20 TEAM TRIGURU 00:48:56 00:04:16 07:13:30 00:03:48 02:29:47 783
 770 CHESS James 10:40:23 BTF 00:48:37 00:06:20 07:02:30 00:04:01 02:38:53 720
 771 BETTINSON Andrei 10:40:30 UNAFFILIATED 00:42:54 00:04:17 07:04:56 00:03:35 02:44:45 809
 772 DORSO Denis 10:40:39 CEPS DINAN ARMOR TRIATHLON 00:52:10 00:04:19 07:04:35 00:03:31 02:36:02 189
 773 YGNACE Romain 10:40:44  00:49:43 00:08:39 07:04:30 00:07:05 02:30:46 1253
 774 CIOARA Flaviu-Octavian 10:40:45  00:56:00 00:03:38 07:01:30 00:03:25 02:36:10 640
 775 ZEZULKA Dusan 10:40:51 ETRIATLON TEAM 00:43:56 00:04:20 06:57:16 00:04:02 02:51:15 647
 776 VAN DE LAAR Edwin 10:40:57 MOVETOO TRIATLON TEAM 00:44:05 00:04:06 07:06:08 00:03:35 02:43:00 1056
 777 CONRADI Keith 10:40:57 FARNHAM TRIATHLON CLUB 00:48:39 00:04:52 07:34:50 00:04:29 02:08:06 734
 778 LAPEYRIE Pierre 10:41:55 ORANGE PASSION TRIATHLON 00:49:56 00:03:56 06:56:22 00:03:46 02:47:53 402
 779 GODHER Caroline 10:41:58 TRI CLUB ISLE SUR LA SORGUE 00:41:23 00:05:20 07:11:48 00:07:05 02:36:21 513
 780 SMITH Stephen 10:42:01 GUERNSEY TRI CLUB 00:38:21 00:03:14 06:41:46 00:03:12 03:15:26 743
 781 THOMAS Steve 10:42:02 MERSEY TRI CLUB 00:46:25 00:04:41 07:20:08 00:04:35 02:26:12 755
 782 RIDLEY Marie-Louise 10:42:20  00:44:53 00:05:02 07:28:13 00:04:30 02:19:41 828
 783 TEIXEIRA Paul 10:42:23 THAMES VALLEY TRIATHLETES 00:41:13 00:06:53 07:17:57 00:05:48 02:30:29 787
 784 DEBONO Jason 10:42:36 USAT 00:52:14 00:07:16 07:06:07 00:03:03 02:33:55 1175
 785 JAMES Simon 10:43:50  00:44:08 00:06:20 07:28:11 00:07:59 02:17:10 685
 786 HOFMEIJER Remy 10:44:39 TRIOSS 00:46:43 00:04:47 07:14:36 00:10:57 02:27:33 1042
 787 SHMELEV Alexander 10:44:53 CYCLEON 00:46:37 00:04:57 07:21:32 00:05:24 02:26:21 642
 788 LEGRAND Nicolas 10:45:02  00:51:30 00:06:46 06:43:02 00:04:31 02:59:10 1294
 789 BATHGATE Shona 10:45:06 EAST LOTHIAN TRI/HARTEE JETS 00:43:28 00:03:51 07:22:40 00:02:25 02:32:40 731
 790 RAULIN Thomas 10:45:25 NMT54 00:58:37 00:06:12 07:11:01 00:04:21 02:25:12 394
 791 PAUCHARD Philippe 10:45:25 NMT54 00:52:19 00:05:32 07:17:52 00:04:28 02:25:12 395
 792 GRENARD Sylvain 10:45:59 PARIS SPORT CLUB 00:54:19 00:03:26 07:12:07 00:02:07 02:33:58 416
 793 FONTBONNE Pascal 10:46:21 CONSEIL EUROPE TRI 00:50:20 00:05:35 06:58:39 00:05:15 02:46:29 229
 794 STOLTZ Darryn 10:46:56 FAST 00:53:10 00:04:39 06:30:15 00:03:03 03:15:47 905
 795 ROPPONEN Pasi 10:47:17 FINNTRIATHLON MASTERS 00:48:26 00:05:03 07:02:19 00:07:14 02:44:13 1139
 796 MULLER Didier 10:47:27 HY´┐ŻRES TRIATHLON 00:50:02 00:06:00 07:06:46 00:05:07 02:39:30 298
 797 RICARD Avell´┐Ż Saballs 10:48:39 CLUB ATL´┐ŻTIC PALAFRUGELL TRIATL´┐Ż 00:49:35 00:06:13 07:09:33 00:04:36 02:38:41 1194
 798 RUCHON Violaine 10:48:52  00:53:28 00:06:35 07:31:01 00:04:37 02:13:09 1290
 799 ALLARD Fran´┐Żois 10:48:56  00:49:13 00:03:40 07:20:08 00:03:02 02:32:51 1019
 800 SUBLON Marc 10:50:41 NAVECO BETSCHDORF 00:39:51 00:03:23 07:22:27 00:01:50 02:43:08 388
 801 SALARDAINE Vincent 10:50:41  00:48:53 00:04:30 07:12:48 00:03:10 02:41:19 1264
 802 CAMPS SOLA Laura 10:50:57 CLUB TRIATL´┐Ż SERRADELLS ANDORRA 00:41:27 00:03:27 07:29:01 00:04:11 02:32:49 1176
 803 ROETHLISBERGER Alain Patric 10:51:12 SWISS TRIATHLON 00:50:48 00:07:09 07:17:41 00:03:01 02:32:31 1156
 804 BOUDIN Vanessa 10:51:26 ISSY TRIATHLON 00:53:49 00:06:27 07:09:05 00:05:37 02:36:27 92
 805 ROBERT S´┐Żbastien 10:51:35 LES TRITONS MELDOIS 00:48:21 00:05:14 07:15:55 00:04:22 02:37:41 360
 806 FAHY Ed 10:51:51 LIMERICK TRIATHLON CLUB 00:57:55 00:04:33 07:18:26 00:05:14 02:25:41 663
 807 MENNERET R´┐Żgis 10:52:04 ISSY TRIATHLON 00:46:10 00:06:21 07:32:08 00:03:45 02:23:39 100
 808 MICHEA Patrick 10:52:32  00:50:47 00:05:45 07:39:16 00:06:47 02:09:54 940
 809 APELLANIZZUBIRI Jes´┐Żs 10:53:02 D. APALATEGUI 00:40:08 00:04:15 06:56:24 00:03:55 03:08:20 1202
 810 VIOGNE Jean-Louis 10:53:06 HERMITAGE TOURNONAIS TRIATHLON 00:47:32 00:04:42 07:33:28 00:02:50 02:24:31 284
 811 HOUDRY Nicolas 10:53:09  00:47:01 00:04:43 07:42:07 00:03:58 02:15:18 1256
 812 ROA Jorge 10:53:17  00:57:01 00:05:38 07:15:36 00:04:27 02:30:33 1231
 813 ATTALI Ofer 10:53:19 ISSY TRIATHLON 01:01:51 00:04:29 07:14:16 00:02:38 02:30:04 88
 814 FRADIER Jean-Marc 10:53:28 AURILLAC TRIATHLON 00:47:55 00:05:07 07:15:46 00:04:29 02:40:10 129
 815 CHAMBERLAIN Gary 10:53:55 WARLEY WASPS TRIATHLON AND RUNNING CLUB 00:48:31 00:08:44 07:17:06 00:06:49 02:32:42 817
 816 OULES Philippe 10:54:00 AUCH TRIATHLON DUATHLON EN GASCOGNE 01:03:42 00:04:33 07:12:25 00:02:23 02:30:56 123
 817 BILLE Emmanuelle 10:54:17 ISSY TRIATHLON 00:52:51 00:04:08 07:34:05 00:02:28 02:20:43 89
 818 LATUSEK Andrew 10:54:21 ARMY TRIATHLON ASSOCIATION 00:51:25 00:04:30 07:30:07 00:05:48 02:22:28 708
 819 CONWAY Richard 10:54:24 TEAM TRI GURU 00:47:50 00:04:51 07:41:23 00:05:37 02:14:42 774
 820 LE TENO B´┐Żatrice 10:55:04 ORANGE PASSION TRIATHLON 00:42:06 00:03:44 07:45:22 00:03:18 02:20:32 403
 821 CLARK Richard 10:55:07  00:47:23 00:03:23 07:31:55 00:03:41 02:28:42 834
 822 GLEDHILL John 10:55:27 DURHAM TRIATHLON CLUB 01:04:32 00:05:44 07:03:12 00:04:43 02:37:13 728
 823 VANHEUSDEN Alain 10:55:52 TCBM 00:43:54 00:04:50 07:09:19 00:04:16 02:53:31 999
 824 GOLBERY Pierre-Emmanuel 10:56:00 TRIATHLON CLUB DE TORCY 00:46:31 00:04:36 07:17:36 00:03:20 02:43:55 536
 825 ROULLIER C´┐Żdric 10:56:52 DIJON TRIATHLON - - - - - 245
 826 HERNANDEZ Jean Louis 10:56:58 HY´┐ŻRES TRIATHLON 00:51:30 00:03:34 07:05:43 00:04:33 02:51:36 295
 827 CARRIERE Pascal 10:56:58 HY´┐ŻRES TRIATHLON 00:53:11 00:04:28 06:58:19 00:02:58 02:58:00 289
 828 PERSIDAT Arnaud 10:57:01 POISSY TRIATHLON 00:40:55 00:03:43 07:41:14 00:02:55 02:28:12 429
 829 HIVEY Emma 10:59:03 ARMY TRIATHLON ASSOCIATION 00:42:30 00:03:14 07:35:34 00:02:51 02:34:51 709
 830 LOZANO Philippe 10:59:11 SAGC TRIATHLON 00:45:22 00:04:14 07:24:45 00:04:35 02:40:14 440
 831 DAUNCEY Anthony 10:59:11 PACTRI 00:53:19 00:04:38 07:21:57 00:04:43 02:34:32 760
 832 GUIBERT Claude 10:59:15 AURILLAC TRIATHLON 00:51:46 00:04:27 07:06:20 00:03:18 02:53:21 134
 833 LECENDRE Cl´┐Żment 10:59:58  00:54:50 00:03:40 06:54:17 00:02:38 03:04:30 939
 834 FAVOT Christophe 11:00:01 CLUB NAUTIQUE PONTARLIER TRIATHLON 00:46:04 00:05:11 07:34:42 00:03:12 02:30:51 212
 835 LEMAITRE Olivier 11:00:05 MASSILIA TRIATHLON 00:56:45 00:05:12 07:35:01 00:03:05 02:20:01 373
 836 SNEDDON Rob 11:00:34 MERSEY TRI CLUB 00:54:49 00:06:23 07:22:12 00:07:46 02:29:22 753
 837 MCGIVERN James 11:00:47  00:36:21 00:04:22 07:22:14 00:04:59 02:52:50 679
 838 DESSAUD Fr´┐Żd´┐Żric 11:00:59 OZOIR VSOP TRIATHLON 00:40:51 00:04:27 07:17:48 00:06:57 02:50:54 414
 839 GOSSELAIN Pierre 11:01:07 OTC 00:46:49 00:05:09 07:18:45 00:03:47 02:46:35 986
 840 MUGGLETON Keith 11:02:12 EAST ESSEX TRIATHLON CLUB 00:40:36 00:03:08 07:44:24 00:03:30 02:30:32 730
 841 BOITEAU Myriam 11:02:15 ROCHE VEND´┐ŻE TRIATHLON 00:53:47 00:06:22 07:15:21 00:03:56 02:42:48 439
 842 POTTER Craig 11:03:04 WAKEFIELD TRIATHLON CLUB 00:57:11 00:04:00 07:16:05 00:05:35 02:40:12 814
 843 VERGOZ Olivier 11:03:11 TRI CLUB CLISSONAIS 00:48:03 00:04:35 07:13:06 00:03:41 02:53:43 511
 844 MEVEL Armelle 11:04:08 TOBESPORT 00:58:56 00:04:21 07:21:59 00:04:42 02:34:08 498
 845 ILLIKOVA Michaela 11:04:27 ETRIATLON 00:50:09 00:04:20 07:39:14 00:04:46 02:25:56 646
 846 COMPERE Steve 11:05:00  00:52:52 00:07:14 07:37:25 00:06:07 02:21:20 632
 847 POCHON Fr´┐Żd´┐Żric 11:05:11 VELIZY TRIATHLON 00:47:45 00:07:45 07:26:25 00:07:27 02:35:46 613
 848 KRUGER Jeanine 11:05:14 FAST 00:46:42 00:05:32 07:26:45 00:05:32 02:40:42 907
 849 PEINADO MARTIN Jose 11:05:18 C.D. TRIATLON GRANADA 00:45:00 00:08:00 07:20:21 00:05:57 02:45:59 1185
 850 MOLONEY Der 11:05:27 CORK TRI CLUB 00:48:03 00:05:54 07:09:09 00:04:06 02:58:13 655
 851 ONDERWATER Lenard 11:05:37 TRIATHLONVERENIGING DE BOLLENSTREEK 00:58:43 00:07:00 07:13:01 00:04:57 02:41:55 1060
 852 MORENO BLANCA Jos´┐Ż 11:06:05 CD SOHAIL LA SENDA 00:48:51 00:06:05 06:53:31 00:07:11 03:10:25 188
 853 PATRICK QUAYLE Patrick 11:06:08 DRV 00:36:49 00:03:25 07:39:43 00:03:25 02:42:45 901
 854 KRUMENACKER Alain 11:06:13  00:46:03 00:06:36 07:39:08 00:07:00 02:27:25 1258
 855 KESSLER Ulrike 11:06:38 TRIABOLOS HAMBURG E.V. 00:46:01 00:04:30 07:34:48 00:03:14 02:38:04 1095
 856 BELL Karen 11:06:42 CHARNWOOD TRI 00:56:02 00:05:15 07:37:09 00:04:29 02:23:45 723
 857 GODBARGE Christophe 11:06:45 AURILLAC TRIATHLON 00:48:46 00:04:51 07:21:48 00:03:12 02:48:06 126
 858 GAKENHOLZ Pimo 11:07:22 SV ALTENCELLE TRI 00:42:31 00:04:36 07:23:28 00:02:55 02:53:51 1084
 859 HARDY Pierre 11:07:27 SHARKS TRIATHLON 00:55:33 00:07:22 07:26:05 00:03:09 02:35:16 992
 860 MANRIQUE FERNANDEZ Fernan Augusto 11:07:39  01:12:24 00:06:48 07:24:39 00:02:21 02:21:25 1232
 861 BELLONE Philippe 11:07:46 TOBESPORT 01:06:35 00:05:57 07:27:17 00:04:02 02:23:54 497
 862 KUIJER Eddy 11:08:15 MOVETOO 00:51:18 00:05:28 07:11:26 00:04:03 02:55:58 1055
 863 MARTINEZ Alain 11:08:16 TRIATHLON CLUB SAINT-AVOLD 00:51:01 00:05:23 07:37:41 00:02:25 02:31:44 551
 864 VELASCO PERARNAU Carles 11:08:52 CT DEVOURIN KILOMETERS 00:49:09 00:08:00 07:02:29 00:06:28 03:02:44 1199
 865 GEORGE Paula 11:09:11 VO2 MAXIMUM RT 00:37:45 00:04:24 07:44:30 00:04:14 02:38:15 810
 866 LOWE Scott 11:09:56 TRIATHLOM 00:50:28 00:09:08 07:33:01 00:04:28 02:32:49 804
 867 GRIMM J´┐Żrg 11:10:24 TV HERXHEIM 00:56:38 00:05:50 07:25:31 00:02:11 02:40:13 1116
 868 JAIME Xevi 11:11:10 CLUB AT. PALAFRUGELL 00:47:14 00:05:50 07:37:27 00:04:32 02:36:05 1192
 869 CROUTHERS Kevin 11:11:28 WAKEFIELD TRIATHLON 00:50:04 00:05:56 07:26:43 00:05:31 02:43:12 812
 870 FR´┐ŻTAULT Yannick 11:12:18  00:58:09 00:09:15 06:38:37 00:15:12 03:11:03 1280
 871 ROBIN Christian 11:13:01 TRIATHLON COTE D AMOUR 00:44:13 00:05:08 07:33:15 00:04:19 02:46:03 571
 872 TRUONG Quang Minh 11:13:38  00:50:11 00:07:27 07:35:06 00:04:05 02:36:47 1250
 873 FOURNIER Marc 11:14:01 LANNION TRIATHLON 00:51:43 00:02:56 07:40:53 00:04:16 02:34:12 335
 874 ARNDT Tine 11:15:16 TEAM ERDINGER ALKOHOLFREI 00:56:05 00:03:54 07:32:57 00:04:47 02:37:31 1090
 875 MELMOUX Elinore 11:16:39 USAT 00:49:44 00:05:09 07:41:59 00:02:51 02:36:55 602
 876 STUBBS Steve 11:16:42 TENBY ACES 00:41:18 00:04:45 07:38:53 00:01:38 02:50:06 786
 877 MASTNAK Jean-Pierre 11:16:59 CRV LYON TRIATHLON 00:51:44 00:07:22 07:17:56 00:05:34 02:54:22 237
 878 K´┐ŻNANZ Christoph 11:16:59 TRI-TEAM SSV ETTLINGEN 00:51:10 00:09:57 07:30:10 00:07:49 02:37:51 1101
 879 SULLIVAN Brian 11:17:34 TRI GURU TRIATHLON CLUB 00:52:33 00:06:59 07:42:52 00:05:45 02:29:24 797
 880 PROVESI Fabio 11:17:45  00:52:09 00:03:59 06:54:15 00:03:51 03:23:29 1309
 881 POULET J´┐Żr´┐Żmi 11:18:39 VALLONS DE LA TOUR TRIATHLON 00:48:27 00:03:20 07:30:34 00:03:36 02:52:40 608
 882 BEVALET Marc 11:19:35 TRIATHLON CLUB DE TORCY 01:01:57 00:06:14 07:17:55 00:02:33 02:50:53 535
 883 WILCOCK Jim 11:19:59 MERSEY TRI CLUB 01:00:44 00:06:53 07:28:15 00:06:23 02:37:43 752
 884 ABDEL KARIM RU´┐ŻZ Yasmeen 11:20:24 C.D. TRIATLON GRANADA 00:50:03 00:05:19 07:32:55 00:06:07 02:45:59 1186
 885 BEATTIE Keith 11:20:26  00:40:51 00:03:05 07:50:21 00:06:23 02:39:44 830
 886 JARMAN Will 11:20:37  00:39:42 00:09:43 07:52:41 00:05:09 02:33:20 844
 887 DAVIDSON Mark 11:20:43  00:49:14 00:06:01 07:17:27 00:06:32 03:01:28 868
 888 BEARD Steven 11:20:44  00:53:11 00:04:43 07:14:49 00:06:30 03:01:28 869
 889 KONRATH Jean-Christophe 11:21:06  00:52:06 00:07:42 07:35:51 00:03:20 02:42:06 1265
 890 MCMULLAN Colin 11:22:03 WEST LOTHIAN 01:01:52 00:05:48 07:27:20 00:04:56 02:42:05 820
 891 MEYBLUM St´┐Żphane 11:22:13 METZ TRIATHLON 00:46:31 00:05:20 07:31:13 00:07:37 02:51:29 382
 892 CHAPPATTE Olivier 11:22:44 SOUTH EAST 00:57:26 00:05:10 07:25:52 00:03:39 02:50:34 1155
 893 MELOCCO Simon 11:23:04  00:49:28 00:08:03 07:33:36 00:08:36 02:43:20 1267
 894 TISSERAND S´┐Żbastien 11:23:11  00:48:34 00:07:44 07:30:49 00:07:57 02:48:05 1248
 895 BOUILLIN Laurent 11:24:35 AURILLAC TRIATHLON 00:42:53 00:04:55 07:14:55 00:03:58 03:17:52 131
 896 LE GUERN Christophe 11:24:47 LANNION TRIATHLON 00:53:52 00:05:52 07:39:47 00:04:29 02:40:45 328
 897 STENCHION Luke 11:26:57  00:48:32 00:08:52 07:35:21 00:05:49 02:48:21 835
 898 GIANNANTONIO Marco 11:27:01 ASPTT MULHOUSE TRI 00:47:59 00:04:08 07:47:33 00:02:30 02:44:49 113
 899 MURPHY Dave 11:27:24 LIMERICK TRIATHLON CLUB 00:58:55 00:05:08 07:38:36 00:03:56 02:40:47 667
 900 SIMON St´┐Żphane 11:27:33 SAS TRIATHLON 37 00:55:21 00:10:51 07:23:58 00:08:59 02:48:23 449
 901 NICHOLSON David 11:27:52 LONDON FIELDS TRIATHLON CLUB 00:51:29 00:05:35 07:09:24 00:08:07 03:13:15 750
 902 MOULIN Wilfried 11:28:49 CLUB TRINOSAURE LES MUREAUX 00:49:18 00:07:54 07:35:54 00:07:13 02:48:28 218
 903 GRASSIN Didier 11:28:56 SAINT GR´┐ŻGOIRE TRIATHLON 00:49:08 00:04:54 07:46:28 00:04:24 02:44:00 442
 904 GUIHARD J´┐Żr´┐Żme 11:29:04 REQUINS COURONNAIS TRIATHLON 00:43:01 00:04:49 07:42:42 00:02:49 02:55:41 436
 905 GARCIA Michael 11:29:21 TSV BOCHOLT 00:50:53 00:04:50 07:44:58 00:05:03 02:43:34 1105
 906 DUPUY Dominique 11:29:44 CA P´┐ŻRIGUEUX TRIATHLON 00:39:49 00:03:31 07:49:47 00:02:17 02:54:18 170
 907 KING Andrew 11:30:38  00:44:11 00:06:42 07:41:34 00:06:51 02:51:18 677
 908 PIERRET Christophe 11:32:19 ORANGE PASSION TRIATHLON 00:46:14 00:03:37 07:33:22 00:05:28 03:03:37 407
 909 FERTONANI Adrien 11:33:15  00:54:17 00:04:58 06:28:51 00:03:49 04:01:18 1251
 910 JANSSENS Freddy 11:33:21 ATCC 00:54:20 00:06:09 07:37:54 00:05:06 02:49:49 973
 911 LE PICARD Nathalie 11:34:37 LA ROCHELLE TRIATHLON 00:50:26 00:03:27 08:07:57 00:01:12 02:31:33 323
 912 PRATTE Axel 11:34:54  00:55:01 00:07:05 07:28:28 00:05:24 02:58:55 963
 913 DIERKX Els 11:37:00  00:43:41 00:03:32 07:57:04 00:02:56 02:49:44 1018
 914 NGUYEN Minh Tuan 11:38:57 TRIATHLON CLUB TORCY 00:56:33 00:05:44 07:37:11 00:04:34 02:54:53 543
 915 BENNING Reinhold 11:39:40 TSV BOCHOLT 00:49:48 00:07:28 07:33:38 00:06:37 03:02:07 1104
 916 MATHEWS Claire 11:40:24  00:52:33 00:04:08 07:45:56 00:04:09 02:53:36 829
 917 FREISCHLAG Regina 11:40:42  00:59:14 00:04:48 07:53:10 00:03:29 02:39:59 1122
 918 GILLIEAUX Alain 11:48:58 Q3T 00:51:24 00:05:41 07:19:21 00:07:24 03:25:05 990
 919 DUTHILLEUL Sylvain 11:50:18  00:43:17 00:05:02 07:46:22 00:04:30 03:11:04 1246
 920 GHIDINELLI J´┐Żr´┐Żme 12:00:17  01:02:33 00:05:03 - - - 1031
 999 NERRINCK Philippe - ATCC - - - - - 974
 999 DUBUC Bertrand - HAC 00:47:10 00:03:53 07:55:48 00:03:25 - 281
 999 DELEPOUVE Cl´┐Żment - TEAM TRIATHLON MAUBEUGE 00:47:15 00:04:03 06:14:34 00:02:17 - 488
 999 CALVERT Dave -  00:59:38 00:04:52 07:38:51 00:02:40 - 682
 999 CESARI Alexandre - TRIATHLON CLUB MONTALBANAIS 00:43:05 00:03:37 07:29:29 00:03:19 - 549
 999 GUMMERSALL Antony - TEAM TRI GURU 00:43:44 00:03:11 07:43:12 00:09:58 - 775
 999 LOUGHLIN Bernard - LIMERICK TRIATHLON CLUB 00:52:45 00:04:08 07:42:35 00:04:57 - 665
 999 BLACKSHAW Chris -  00:54:18 00:08:11 - - - 853
 999 BUZZARELLO Yannick - ECHIROLLES TRIATHLON - - - - - 251
 999 GARCIN Romain - CORSICATHLON 00:32:57 00:02:00 04:30:56 00:01:15 - 32
 999 MADS-EMIL Seiergaard - TRI-CLUB DENMARK 00:38:09 00:02:31 05:15:25 00:02:50 - 1135
 999 WILLMANN Damien - C.D.V TRIATHLON 00:39:13 00:02:57 05:31:26 00:02:05 - 165
 999 TORA Arnaud - POISSY TRIATHLON 00:40:09 00:01:57 05:47:16 00:03:38 - 418
 999 RAUSIS Adeline -  00:43:03 00:03:07 05:55:46 00:02:20 - 1161
 999 LUTZ Nicolas - CLERMONT TRIATHLON 00:41:53 00:03:04 05:59:21 00:01:51 - 202
 999 HUARD J´┐Żr´┐Żme - LEMAN TRIATHLON CLUB 00:46:51 00:04:02 05:54:24 00:02:05 - 340
 999 DE VOS Vincent - TVS 90 00:39:25 00:04:36 06:25:31 00:03:07 - 1068
 999 RIEU St´┐Żphane - BISCAROSSE OLYMPIQUE TRIATHLON 00:40:48 00:06:23 06:39:29 00:02:39 - 148
 999 SCHMID Julia -  00:42:12 00:04:15 07:05:58 00:02:46 - 1160
 999 BUATHIER Christophe - BOURG EN BRESSE TRIATHLON 00:42:57 00:05:56 06:57:53 00:07:48 - 152
 999 LAURAY Christophe -  00:45:47 00:05:11 07:07:39 00:03:40 - 1274
 999 SINOU Nicolas -  00:43:59 00:04:41 07:15:11 00:07:57 - 1291
 999 MATTON Tom -  00:46:58 00:03:46 07:14:27 00:05:20 - 1034
 999 BAINBRIDGE James - TRIATHLON ENGLAND 00:46:07 00:06:38 07:33:58 00:04:05 - 806
 999 BOILEAU Am´┐Żlie -  00:48:37 00:07:07 07:35:21 00:05:54 - 930
 999 PETRALIA Jan - LES TRITONS MELDOIS 00:36:07 00:02:24 04:19:10 00:11:17 - 35
 999 VISTICA Andrej - TRIPEP 00:33:42 00:01:28 04:32:42 00:01:36 - 59
 999 DE ROUCK Wazo -  00:38:59 00:02:31 04:55:12 00:01:57 - 1033
 999 NAVARRO CANOVAS Ramon Alberto - TRIRUNNER 00:36:02 00:02:21 05:37:22 00:04:17 - 45
 999 JANIGA Peter -  00:37:31 00:01:59 05:52:19 00:02:29 - 643
 999 LOICHOT Philippe - ORANGE PASSION TRIATHLON 00:42:38 00:02:25 05:40:54 00:08:51 - 401
 999 PAGET Vincent - HAUT JURA VO3 MAX TRIATHLON 00:42:17 00:03:51 05:45:08 00:05:11 - 283
 999 DAVIS Justin -  00:42:36 00:05:22 05:50:50 00:03:37 - 921
 999 SEARLE Rob - NELSON TRIATHLON CLUB 00:43:03 00:04:28 05:53:02 00:06:02 - 911
 999 DAO Kevin - GUC TRIATHLON 00:45:37 00:03:04 05:57:44 00:04:03 - 277
 999 GONZALEZ CU´┐ŻA Manuel - TRIATLON MAR DE VIGO 00:56:59 00:04:36 05:57:36 00:04:45 - 1213
 999 SENGEL Tristan - ECHIROLLES TRIATHLON 00:53:10 00:06:12 06:19:18 00:08:14 - 254
 999 PREMONT Nicolas -  00:46:16 00:03:45 - - - 948
 999 BESSON S´┐Żbastien - CHAMBERY TRIATHLON 00:39:44 00:03:44 - - - 196
 999 MURPHY Phil -  00:34:37 00:02:06 - - - 1318
 999 COLLEDGE Flora - DANIELARYFBIRDS 00:35:35 00:01:52 - - - 10
 999 VAN ZUTPHEN Machiel - NSTV TRION 00:45:24 00:04:59 06:50:35 00:04:43 - 1057
 999 WILLIAMSON Ian -  00:52:42 00:04:53 06:43:51 00:07:54 - 873
 999 VIGNES Jean-Baptiste - SENART SAVIGNY TRIATHLON 00:41:21 00:03:27 07:11:51 00:05:03 - 452
 999 POLAERT Henri Jean - POISSY TRIATHLON 00:52:28 00:04:36 06:58:58 00:09:00 - 424
 999 POUVREAU Thomas - CHARTRES METROPOLE TRIATHLON 00:37:02 00:04:04 07:19:58 00:03:58 - 200
 999 MARTINEAU Reynald - POISSY TRIATHLON 00:54:00 00:04:58 06:59:16 00:06:49 - 428
 999 DEWAELE Nicolas - TRIATHLON CLUB TORCY 00:48:05 00:05:28 07:06:41 00:05:17 - 557
 999 MARCHAIS Mathieu - CAEN TRIATHLON 00:37:32 00:05:53 07:21:34 00:04:21 - 178
 999 BOISTEAU Maximilien - ISSY TRIATHLON 00:47:52 00:07:59 07:17:46 00:03:40 - 98
 999 IMHOF Michael - TRI TEAM STEFFISBURG 00:52:41 00:07:42 07:28:21 00:04:52 - 1157
 999 STEPHEN Doster - SY TRI (SHREWSBURY TRIATHLON) 00:51:01 00:03:57 07:37:12 00:02:50 - 768
 999 BOIGELOT Jean-Fran´┐Żois -  00:42:36 00:05:59 - - - 1023
 999 NEVEU Baptiste - DANIELARYFBIRDS 00:29:46 00:01:26 - - - 38
 999 TEDFORD Stan - WESSEX WIZARDS 00:42:36 00:04:40 - - - 819
 999 GUYARD Loic - LA ROCHELLE TRIATHLON 00:46:56 00:06:27 - - - 319
 999 SIGUIER Michel - POISSY TRIATHLON 00:32:12 00:02:50 - - - 422
 999 PHILIS Antoine - TEAMSRAC 00:43:21 00:04:39 - - - 495
 999 DORRIAN Chris - HIELBOW TRIATHLON CLUB 00:52:18 00:06:54 - - - 659
 999 MACALLISTER Terry - HIELBOW TRIATHLON CLUB 01:02:24 - - - - 658
 999 H´┐ŻU´┐ŻLE Klaus -  01:02:25 - - - - 1129
 999 LOUVEL Remi - TRI VELOCE SAINT S´┐ŻBASTIEN 00:36:53 00:02:46 - - - 516
 999 MASSOTTE Francis - UCVN 00:51:09 00:04:22 - 0:**:** - 595
 999 PHILIP Guillaume -  01:03:33 00:05:22 - - - 953
 999 DERENSY David - TRIATHLON CLUB DE LIEVIN 00:47:45 00:03:39 - - - 534
 999 KNIGHT Janine - TRIATHLOM 01:05:33 00:08:04 07:34:06 0:**:00 - 805
 999 WRIGHT Simon -  00:55:46 00:05:35 07:31:21 00:06:46 - 849
 999 KRAMER Kees -  00:43:51 00:03:48 07:42:52 00:11:43 - 1038
 999 SCOTT Graeme -  00:43:39 00:02:47 07:45:03 00:11:25 - 833
 999 POIRETTE Julien - LILLE TRIATHLON 00:39:45 00:04:29 - - - 363
 999 VIARGUES Fr´┐Żd´┐Żric - CLUB DES NAGEURS DE PARIS / UNION SPORTIVE NATIXIS - - - - - 211
 999 IHLING Johnny - TSV BOCHOLT 00:45:11 00:08:08 07:47:15 00:08:05 - 1108
 999 DEBIEF Fanny - SENART SAVIGNY TRIATHLON 00:47:25 00:03:40 - - - 450
 999 LABBEY Fabienne - TRIATHLON COTE D AMOUR 00:41:57 00:03:55 - 0:**:** - 566
 999 GWIAZDOWSKI Sebastian -  00:53:19 00:06:59 07:25:11 00:26:35 - 1072
 999 ROMERO PEREIRA David Antonio - TRIATLON MAR DE VIGO 01:02:24 00:04:12 07:49:38 0:-2:** - 1212
 999 THIJS Andy - OTC THUIN 00:49:34 00:06:39 07:54:39 00:02:43 - 987
 999 VERSTRINGE Dries -  00:49:12 00:03:15 05:21:45 - - 1037
 999 JAUDOIN Gilles - VELIZY TRIATHLON 00:43:01 00:03:56 06:24:19 - - 612
 999 ANTONELLI Rapha´┐Żl - ISSY TRIATHLON 00:44:16 00:05:08 06:56:56 - - 97
 999 RATON Patrice - WAPITI TRIATHLON CLUB LARMOR PLAGES 00:46:33 00:03:43 07:16:46 - - 624
 999 CROS Fabien - ORANGE PASSION TRIATHLON 00:36:09 00:02:46 07:43:00 - - 404
 999 CHOSEROT J´┐Żr´┐Żme - SENART SAVIGNY TRIATHLON 00:45:01 00:03:52 07:35:14 - - 457
 999 WRIGHT Jonathan -  00:48:26 00:06:57 07:31:35 - - 850
 999 RECASENS ROSELL Joan - CN VILAFRANCA TRIATL´┐Ż 00:42:09 00:03:34 07:46:44 - - 1198
 999 DORGNIER Nicolas - USAT 00:54:43 00:06:34 07:38:26 - - 76
 999 LEFEVRE Franck -  00:45:56 00:06:39 07:50:45 - - 1244
 999 DOBSON Paul -  00:43:06 00:06:26 07:59:25 - - 864
 999 SCHLUETTER Juergen - TSV BOCHOLT 00:59:21 00:03:39 07:46:07 - - 1109
 999 MOJMIR Ocvirk - TK LOGATEC 00:53:01 00:03:48 07:52:59 - - 645
 999 OWENS David -  00:42:49 00:05:13 08:02:10 - - 846
 999 BAUDET Thierry - TRIATHLON ATLANTIQUE CARQUEFOU 00:52:25 00:04:00 07:54:24 - - 527
 999 ADAMI Kristian -  00:51:16 00:05:47 07:54:04 - - 681
 999 ANDREWS Duncan -  00:39:40 00:04:29 08:07:04 - - 862
 999 LEROUX Thierry - TRIATHLON COTE D AMOUR 00:44:08 00:05:20 08:07:13 - - 568
 999 WATKINSON Paul - DRV 00:57:09 00:10:45 07:49:57 - - 727
 999 MATTILA Anna - TRIATHLONSUOMI 00:46:57 00:03:35 08:07:32 - - 1141
 999 CARROLL David - KNUTSFORD TRI CLUB 00:53:38 00:08:14 07:56:42 - - 747
 999 FLYNN Dean -  00:47:10 00:08:07 08:03:48 - - 678
 999 DEBROISE Vincent - USCCAEN TRIATHLON 00:50:09 00:14:09 07:54:59 - - 603
 999 STAPLEHURST Roger -  00:55:41 00:06:22 07:59:24 - - 832
 999 BAMBER Daniel - TRI GURU TRIATHLON CLUB 00:50:13 00:03:11 08:08:11 - - 790
 999 NUIJTEN Jelle -  00:49:55 00:07:23 08:05:01 - - 1040
 999 IDLE Ben -  00:46:25 00:05:21 08:10:39 - - 879
 999 CHIEUX Emmanuel - LOMME NATATION TRIATHLON 00:49:43 00:05:01 08:07:47 - - 367
 999 MASSAUX Aur´┐Żlien - ST YRIEIXTRIATHLON 00:51:19 00:05:23 08:05:52 - - 466
 999 DE MARNE Sabine - LE CLUB TRIATHLON 00:49:21 00:06:01 08:09:38 - - 338
 999 RHODES Bernadette -  00:57:32 00:04:46 08:06:13 - - 696
 999 DULTI DERRON Marianne -  00:50:22 00:04:38 08:15:34 - - 1150
 999 BRAKE Kirsten - BRANDER SV TRI TEAM 00:53:35 00:05:37 08:16:40 - - 1077
 999 RYAN Christian -  00:31:25 00:01:44 - - - 55
 999 FERGUS Roberts -  00:29:59 00:02:00 - - - 53
 999 FERNANDEZ Lo´┐Żc - ECHIROLLES TRIATHLON 00:32:51 00:01:53 - - - 70
 999 BAVARD Ivan - STADE FRAN´┐ŻAIS 00:36:26 00:01:59 - - - 469
 999 BACH Cl´┐Żment - LES PIRAHNAS 00:31:24 00:01:54 - - - 351
 999 BREDILLET Thomas -  00:36:09 00:02:11 - - - 1276
 999 DEVAIRE Auguste - BESAN´┐ŻON TRIATHLON 00:32:09 00:02:00 - - - 68
 999 LOUIS Yves - BESAN´┐ŻON TRIATHLON 00:37:43 00:04:16 - - - 143
 999 LLEVAT MATALLANA Miquel - V02 00:43:16 00:04:43 - - - 1218
 999 NIEBLA GONZALEZ Carlos - TRIADDICTS 00:42:16 00:04:13 - - - 1206
 999 DIEMER L´┐Ża - LA ROCHELLE TRIATHLON 00:36:43 00:03:03 - - - 317
 999 COTTE Jean-Philippe - ROANNE TRIATHLON 00:53:32 - - - - 69
 999 VI´┐ŻALS VILARNAU Bernat - CAI TRIATLO 00:40:57 00:02:35 - - - 1190
 999 BOUYNE Charline - SENART SAVIGNY TRIATHLON 00:41:31 00:03:16 - - - 451
 999 SALMON Vincent - VELIZY TRIATHLON 00:42:30 00:04:20 - - - 611
 999 CHAMPAM Richard - LIMERICK TRI CLUB 00:40:58 00:02:52 - - - 749
 999 CASTES Christophe - NOGENT SOLIDARIT´┐Ż TRIATHLON 00:47:26 00:05:35 - - - 397
 999 SIEFRIDT Philippe - ESMGOTRI 00:45:35 00:05:07 - - - 267
 999 ERRIAHI Ridha -  00:43:24 00:03:46 - - - 955
 999 PELLETIER St´┐Żphanie - LAVAL TRIATHLON CLUB 00:48:29 00:05:04 - - - 337
 999 RATON V´┐Żronique - WAPITI TRIATHLON CLUB LARMOR PLAGES 00:43:00 00:04:11 - - - 623
 999 DORE Damien - ESMGOTRI 00:46:52 00:04:12 - - - 266
 999 JONES Thomas -  01:04:30 00:04:13 - - - 701
 999 DECKERS Thomas - BIN 00:43:23 00:04:35 - - - 978
 999 DEKEYSER Steven - 3KANT TRIATHLON CLUB 00:40:45 00:03:15 - - - 964
 999 DERRIER Damien - OTC 45 00:56:23 00:06:13 - - - 411
 999 BETTY Gary -  00:47:52 00:04:51 - - - 831
 999 VLEESHOUWER St´┐Żphane - UTT 00:53:49 00:08:38 - - - 1017
 999 PIETERSE Lourens -  00:41:29 00:06:18 - - - 910
 999 JAMES Paul -  00:45:40 00:04:05 - - - 686
 999 CARTALIER Thomas -  00:49:44 00:05:57 - - - 1296
 999 DUBREUIL Pascal - AS MURET TRIATHLON 00:46:23 00:03:45 - - - 111
 999 CONCEICAO Luis - WINDRUSH TRIATHLON CLUB 00:50:04 00:04:20 - - - 1227
 999 COUTURIER Kevin - TRITYC 00:47:53 00:06:33 - - - 589
 999 MEEUSSEN Peter - AATT 00:43:05 00:04:47 - - - 972
 999 MATT Cutts - BEDFORD HARRIERS AC 00:41:39 00:05:15 - - - 714
 999 ROUZAUT Manuel - LANNION TRIATHLON 00:43:00 00:05:28 - - - 334
 999 THOMAS Richard - TEAM TRIDENT 00:46:43 00:04:34 - - - 778
 999 LEHMANN Eric -  00:56:19 00:06:06 - - - 1262
 999 CHERRUAU Armand-Philippe - TRIATHLON COTE D AMOUR 01:12:20 - - - - 572
 999 BUIRETTE Christophe -  00:57:41 00:09:33 - - - 633
 999 JUSNIAUX Pierre-Yves - Q3T 01:03:58 00:03:35 - - - 988
 999 PILIU Nicolas -  00:53:39 00:07:58 - - - 1245
 999 CERTENAIS Jean Pierre - TRIATHLON COTE D AMOUR 00:45:36 00:05:14 - - - 570
 999 MONDOR Thierry - ORANGE PASSION TRIATHLON 00:37:34 00:04:03 - - - 409
 999 KING Simon - BEDFORD HARRIERS 00:45:45 00:05:29 - - - 710
 999 REEVES Michael - TRI GURU TRIATHLON CLUB 00:43:42 00:05:21 - - - 789
 999 RIPLEY Kevin - WAKEFIELD TRIATHLON CLUB 00:48:04 00:06:26 - - - 815
 999 BEAUPLE Elisa - POISSY TRIATHLON 00:43:04 00:02:55 - - - 426
 999 CHARLES Miller - WADEBRIDGE COASTERS 00:43:52 00:08:08 - - - 811
 999 BASTIEN Jean-Luc - SHARKS TRIATHLON 01:00:25 00:05:23 - - - 994
 999 CHEVALIER Adrien - VERSAILLES TRIATHLON 00:42:31 00:08:20 - - - 618
 999 PIRES Thomas - TEAM TRIATHLON MAUBEUGE 00:59:48 00:02:49 - - - 486
 999 FONTAINE Franck - TRI AVENTURE 00:54:56 00:08:15 - - - 509
 999 GUERRA REYES Augusto Jesus - TRICOTA 00:49:14 00:06:23 - - - 1214
 999 DIAZ GARCIA Domingo -  00:44:31 00:07:09 - - - 1220
 999 WIKLUND Anna-Stina -  00:47:55 00:03:07 - - - 1144
 999 VAN CAENEGEM Vincent - ETC 00:51:38 00:04:57 - - - 981
 999 BRENIAUX-EMATCHOUA Matthieu - CLUB DES NAGEURS DE PARIS / UNION SPORTIVE NATIXIS 00:56:14 00:14:05 - - - 209
 999 SKODZIK Heiko - TEAM ERDINGER ALKOHOLFREI 01:13:27 00:04:29 - - - 1088
 999 QUEMENER Bruno - LANNION TRIATHLON 01:01:37 00:04:45 - - - 326
 999 FERLIC Gavin -  00:43:07 00:06:22 - - - 922
 999 BEDFORD Michael - CRAZY TRI CLUB BATH 01:03:57 00:04:33 - - - 726
 999 DITCHFIELD Dea - BEDFORD HARRIERS 00:49:32 00:04:21 - - - 711
 999 DABET Philippe - ORL´┐ŻANS TRIATHLON CLUB 45 00:47:59 00:07:15 - - - 410
 999 MARRON Jonathan - GREENWICH TRITONS 00:51:40 00:08:03 - - - 742
 999 RYDER Sarah - WRECSAM TRI 00:57:11 00:04:37 - - - 823
 999 STURM Ralf - TRIATHLONSTECKELCOLOGNE 00:43:32 00:08:07 - - - 1098
 999 KRAUTH Lucille - LES MILLE PATTES TRIATHLON 00:51:19 00:04:58 - - - 348
 999 BLACK Julie - WARLEY WASPS TRIATHLON AND RUNNING CLUB 00:56:17 00:06:26 - - - 816
 999 NOBILET Robert - SAINT GR´┐ŻGOIRE TRIATHLON 00:51:58 00:04:58 - - - 446
 999 JAMES Amy - TRI GURU TRIATHLON CLUB 00:46:00 00:05:08 - - - 795
 999 NOBILET Baptiste - SAINT GR´┐ŻGOIRE TRIATHLON 00:51:53 00:05:04 - - - 445
 999 JANSEN Daniel - TRIOSS 00:50:42 00:08:40 - - - 1043
 999 THOMAS Loic -  00:42:56 00:05:36 - - - 1247
 999 LORCA Patric -  00:40:13 00:07:12 - - - 1159
 999 LANGLET L´┐Ża - TEAM TRIATHLON MAUBEUGE 00:53:42 00:04:48 - - - 487
 999 WILSON Ian - MERSEY TRI CLUB 00:50:39 00:03:58 - - - 754
 999 CRAWSHAW Bill - WRECSAM TRI CLUB 00:52:21 00:06:58 - - - 824
 999 GERAUDIE Philippe -  01:08:04 00:04:13 - - - 78
 999 BAUMELER Yanick - FINISHER S WINTERTHUR 00:48:34 00:05:34 - - - 1152
 999 SCOTCHMER Sarah - TEAM TRIDENT 00:44:36 00:05:57 - - - 781
 999 SWINKELS Julian -  00:48:19 00:05:43 - - - 1044
 999 VALLANCE-OWEN Colin -  00:53:53 00:07:25 - - - 882
 999 LE VEUZIT Philippe - EAC TRIATHLON 00:45:54 00:08:29 - - - 246
 999 FOSSE Matthieu -  00:51:28 00:04:52 - - - 935
 999 JABRI Mohsen - CLUB TRINOSAURE LES MUREAUX 01:05:15 00:05:16 - - - 215
 999 WALKER Russell -  00:54:25 00:05:10 - - - 865
 999 MESSINA Franck - JOOL TEAM 00:50:50 00:05:00 - - - 309
 999 FIGUEREO Josep - TEAM TRIRELAY 01:00:00 00:05:38 - - - 1204
 999 KLEIB´┐ŻHMER Dietmar - RC ENDSPURT HERFORD 01:07:25 00:03:58 - - - 1083
 999 BLACKSHAW Alison -  01:01:55 00:08:49 - - - 854
 999 WATERHOUSE Paul - TRI GURU TRIATHLON CLUB 00:49:38 00:08:10 - - - 798
 999 NICHELSON Simon -  00:59:42 00:07:32 - - - 960
 999 BLACKMORE Ivor - BRISTOL & DISTRICT TRIATHLETES 00:58:53 00:05:42 - - - 717
 999 MENNESSON William - STADE FRAN´┐ŻAIS 00:30:04 00:01:37 - - - 30
 999 DERRON Nina - HOME OF TRIATHLON ST MORITZ 00:33:14 00:01:39 - - - 4
 999 LEUVERINK Jeroen - 3 TEAM KIJANI 00:30:40 00:02:09 - - - 1047
 999 GUETE David - RIDENOW CYCLING 00:29:59 00:01:27 - - - 39
 999 SANDERS Frederik -  00:42:01 00:02:04 - - - 1030
 999 BARTOLONE Patrick - VALENCE TRIATHLON 00:33:49 00:03:48 - - - 606
 999 PICHOT Thierry - LANNION TRIATHLON 00:42:56 00:03:34 - - - 325
 999 VERNEY Bruno - EMBRUN TRIATHLON CLUB 00:44:11 00:03:32 - - - 257
 999 KERLEROUX Florian - POISSY TRIATHLON 00:48:50 00:05:26 - - - 425
 999 BONDER Philippe - ISSY TRIATHLON 00:41:33 00:07:05 - - - 91
 999 GUINET Patrick -  00:52:22 00:05:19 - - - 947
 999 BYRNE Ed - NAAS TRIATHLON CLUB 00:52:15 00:05:45 - - - 669
 999 COLLE Jean-Fran´┐Żois - TDCHERVE 00:43:56 00:05:53 - - - 1003
 999 SMITH Frank -  00:40:15 00:06:24 - - - 838
 999 CANAULT Olivier - BREST TRIATHLON 00:41:10 00:03:43 - - - 157
 999 HALL Amy - TRIATHLON SCOTLAND 00:56:28 00:04:45 - - - 808
 999 VIVIER Michael - ENDURANCE TEAM CHIEVRES 01:08:21 00:07:49 - - - 980
 999 MALLEBEY Nicolas - TRICASTIN TRIATHLON CLUB 00:35:14 00:02:28 - - - 585
 999 HERMETZ Loic - ISSY TRIATHLON 00:43:36 00:03:31 - - - 86
 999 LE ROUX-MALLOUF Thibault - ECHIROLLES TRIATHLON 00:36:02 00:03:42 - - - 255
 999 BESCHE Cyrille - VALENCE TRIATHLON 00:37:21 00:02:55 - - - 605
 999 MOLLARD Louis - LUGDUNUM TRIATHLON CLUB 00:51:27 00:03:41 - - - 369
 999 RENE Thierry - NEVERS TRIATHLON 00:42:49 00:05:29 - - - 391
 999 JAMES Robert - TRI GURU TRIATHLON CLUB 00:39:28 00:03:15 - - - 796
 999 BLONZ Thomas -  00:49:17 00:08:49 - - - 1252
 999 STUART Cooke - TEAM TRIDENT 00:44:53 00:06:34 - - - 779
 999 HUBERS Marjolein - NTB 00:49:59 00:04:53 - - - 1058
 999 VAUTRIN Julien - BOURG EN BRESSE TRIATHLON 00:53:11 00:04:02 - - - 219
 999 MOSS Phil - REDDOG TRIATHLON TRAINING 00:46:18 00:08:23 - - - 897
 999 HILLIDGE Chris -  00:57:57 00:04:38 - - - 845
 999 SENECHAL Romain - TRIATHLON CLUB TORCY 00:52:21 00:08:16 - - - 554
 999 FONTAINE Guillaume - BOURG EN BRESSE TRIATHLON 00:42:12 00:03:54 - - - 153
 999 PHILIP Sumner -  00:54:37 00:07:53 - - - 687
 999 BYRNE Claire - WAKEFIELD TRIATHLON 00:59:45 00:07:44 - - - 813
 999 RUSHTON Gavin - WELSH TRIATHLON 00:49:53 00:10:26 - - - 818
 999 DIPPENAAR Johan - FAST 00:51:23 00:08:49 - - - 904
 999 BYRNE Kenneth - SETANTA 00:50:20 00:06:31 - - - 671
 999 OSBORNE-SMITH Andrew - KETTON TRIATHLON CLUB 00:52:49 00:05:53 - - - 746
 999 EBERLEIN Jan - HAMBURGER SV TRIATHLON 00:53:46 00:04:35 - - - 1080
 999 GARETH Mee -  00:51:12 00:08:16 - - - 866
 999 OFSARNIE Sean - TRI GURU TRIATHLON CLUB 00:51:14 00:06:29 - - - 794
 999 SMITH Jayne -  00:56:06 00:05:53 - - - 852
 999 KEMPEN Michiel - ATRIAC 00:39:33 00:03:46 - - - 977
 999 GAY PAGEON Marion - LES TRITONS MELDOIS 00:42:04 00:01:55 - - - 8
 999 CAILLAT Christophe - POISSY TRIATHLON 00:54:04 00:03:43 - - - 420
 999 LEM´┐ŻE Eric - TEAM TRIATHLON ROQUEBRUNE 00:52:05 00:03:34 - - - 489
 999 VIAL Ivar -  00:47:58 00:10:11 - - - 1074
 999 TEISSEIRE Jean-Marc - PRO TEAM SPORT 00:48:44 00:05:19 - - - 431
 999 KIM Bonde -  01:01:40 00:06:13 - - - 1138
 999 WILLIAMS Aled - CELTIC TRI 00:47:28 00:06:09 - - - 722
 999 SLEE Robert -  00:55:59 00:03:35 - - - 836
 999 RUST Steve - TEAM TRIDENT 00:39:51 00:04:33 - - - 782
 999 SPRAWSON Stuart - TEAM TRIDENT 00:54:30 00:06:11 - - - 780
 999 PICARDEL Christophe - TRITYC 01:00:19 00:05:21 - - - 588
 999 BAMBER Howard - TEAM TRI GURU 00:55:28 00:06:06 - - - 773
 999 DILLING Peter -  00:51:22 00:07:30 - - - 1076
 999 HOLT Peter - ANDOVER TRIATHLON CLUB 01:02:55 00:05:40 - - - 707
 999 BALBONI Brian - USAT 00:53:27 00:08:52 - - - 919
 999 NADEAU Catherine -  00:54:12 00:06:09 - - - 926
 999 CAIN Martin - TRI GURU TRIATHLON CLUB 00:36:05 00:03:31 - - - 793
 999 CARRAZE Jean-Loup - ATHLETIC CLUB BOULOGNE BILLANCOURT 00:43:49 00:06:02 - - - 120
 999 DE CHAMPS Boris - CRV LYON TRIATHLON - - - - - 236
 999 FETHERSTON-DILKE Edmund -  01:02:45 00:05:39 - - - 694
 999 BANAAG Jesus Angelo -  01:13:16 00:04:52 - - - 914
 999 COLLET Bernard - A.S.LIBOURNE TRIATHLON 00:51:10 - - - - 103
 999 MICULIAN Antoine -  01:04:07 - - - - 1236
 999 CEREZO FITTIPALDI Catherine - ELLESFONTDUV´┐ŻLO 01:05:30 - - - - 79